Wetterdaten: Mittwoch, 30.11.2016
Datum Zeit Temp. Aussen Temp. o. S. +5cm Feuchte Auss BlattFeu 1 Luftdruck Regen Sonnenschein Regendauer Solar Windben Empfang
30.11.2016 00:00 -3,5 C -4,4 C -6,7 C 87 % 1 lf 1033,8 hPa 0,0 l/m 0 min 0 min 0 W/m 2,1 km/h (1 Bft) 97,83 %
30.11.2016 00:02 -3,6 C -5,0 C -6,7 C 87 % 0 lf 1033,8 hPa 0,0 l/m 0 min 0 min 0 W/m 4,2 km/h (1 Bft) 94,59 %
30.11.2016 00:05 -3,6 C -5,0 C -6,7 C 87 % 1 lf 1033,8 hPa 0,0 l/m 0 min 0 min 30 W/m 4,2 km/h (1 Bft) 94,59 %
30.11.2016 00:06 -3,6 C -5,0 C -6,1 C 87 % 1 lf 1033,8 hPa 0,0 l/m 0 min 0 min 0 W/m 4,2 km/h (1 Bft) 95,83 %
30.11.2016 00:08 -3,6 C -5,0 C -6,7 C 87 % 0 lf 1033,7 hPa 0,0 l/m 0 min 0 min 0 W/m 4,2 km/h (1 Bft) 97,87 %
30.11.2016 00:10 -3,7 C -4,4 C -6,7 C 87 % 0 lf 1033,6 hPa 0,0 l/m 0 min 0 min 0 W/m 2,1 km/h (1 Bft) 100,00 %
30.11.2016 00:12 -3,7 C -4,4 C -6,7 C 87 % 0 lf 1033,6 hPa 0,0 l/m 0 min 0 min 0 W/m 0,0 km/h (0 Bft) 95,74 %
30.11.2016 00:14 -3,7 C -4,4 C -6,7 C 87 % 0 lf 1033,6 hPa 0,0 l/m 0 min 0 min 0 W/m 0,0 km/h (0 Bft) 100,00 %
30.11.2016 00:16 -3,8 C -4,4 C -6,7 C 88 % 1 lf 1033,5 hPa 0,0 l/m 0 min 0 min 0 W/m 0,0 km/h (0 Bft) 97,87 %
30.11.2016 00:18 -3,8 C -4,4 C -6,7 C 87 % 1 lf 1033,5 hPa 0,0 l/m 0 min 0 min 0 W/m 2,1 km/h (1 Bft) 100,00 %
30.11.2016 00:20 -3,8 C -4,4 C -6,7 C 87 % 1 lf 1033,4 hPa 0,0 l/m 0 min 0 min 0 W/m 2,1 km/h (1 Bft) 95,74 %
30.11.2016 00:22 -3,8 C -4,4 C -6,7 C 87 % 1 lf 1033,3 hPa 0,0 l/m 0 min 0 min 0 W/m 2,1 km/h (1 Bft) 100,00 %
30.11.2016 00:24 -3,8 C -3,9 C -6,7 C 87 % 1 lf 1033,3 hPa 0,0 l/m 0 min 0 min 0 W/m 4,2 km/h (1 Bft) 93,62 %
30.11.2016 00:26 -3,9 C -3,9 C -6,7 C 88 % 1 lf 1033,3 hPa 0,0 l/m 0 min 0 min 0 W/m 4,2 km/h (1 Bft) 100,00 %
30.11.2016 00:28 -3,9 C -3,9 C -6,7 C 88 % 1 lf 1033,2 hPa 0,0 l/m 0 min 0 min 0 W/m 4,2 km/h (1 Bft) 100,00 %
30.11.2016 00:30 -3,9 C -3,9 C -6,7 C 88 % 1 lf 1033,2 hPa 0,0 l/m 0 min 0 min 0 W/m 4,2 km/h (1 Bft) 95,74 %
30.11.2016 00:32 -3,9 C -4,4 C -6,7 C 88 % 1 lf 1033,2 hPa 0,0 l/m 0 min 0 min 0 W/m 4,2 km/h (1 Bft) 95,74 %
30.11.2016 00:34 -3,9 C -4,4 C -6,7 C 88 % 1 lf 1033,2 hPa 0,0 l/m 0 min 0 min 0 W/m 6,3 km/h (2 Bft) 93,62 %
30.11.2016 00:36 -3,9 C -4,4 C -6,7 C 88 % 1 lf 1033,1 hPa 0,0 l/m 0 min 0 min 0 W/m 4,2 km/h (1 Bft) 97,83 %
30.11.2016 00:38 -4,0 C -4,4 C -6,7 C 88 % 1 lf 1033,0 hPa 0,0 l/m 0 min 0 min 0 W/m 4,2 km/h (1 Bft) 95,74 %
30.11.2016 00:40 -4,0 C -5,0 C -6,7 C 88 % 1 lf 1033,1 hPa 0,0 l/m 0 min 0 min 0 W/m 2,1 km/h (1 Bft) 97,87 %
30.11.2016 00:42 -4,0 C -5,0 C -6,7 C 88 % 1 lf 1033,2 hPa 0,0 l/m 0 min 0 min 0 W/m 2,1 km/h (1 Bft) 97,87 %
30.11.2016 00:44 -4,1 C -5,0 C -6,7 C 88 % 1 lf 1033,2 hPa 0,0 l/m 0 min 0 min 0 W/m 2,1 km/h (1 Bft) 93,62 %
30.11.2016 00:46 -4,1 C -5,0 C -6,1 C 88 % 1 lf 1033,2 hPa 0,0 l/m 0 min 0 min 0 W/m 2,1 km/h (1 Bft) 97,87 %
30.11.2016 00:48 -4,1 C -5,0 C -6,1 C 88 % 1 lf 1033,3 hPa 0,0 l/m 0 min 0 min 0 W/m 2,1 km/h (1 Bft) 97,87 %
30.11.2016 00:50 -4,1 C -5,0 C -6,1 C 88 % 1 lf 1033,3 hPa 0,0 l/m 0 min 0 min 0 W/m 2,1 km/h (1 Bft) 95,65 %
30.11.2016 00:52 -4,1 C -5,0 C -6,7 C 88 % 1 lf 1033,3 hPa 0,0 l/m 0 min 0 min 0 W/m 2,1 km/h (1 Bft) 93,62 %
30.11.2016 00:54 -4,1 C -5,0 C -6,1 C 89 % 1 lf 1033,4 hPa 0,0 l/m 0 min 0 min 0 W/m 2,1 km/h (1 Bft) 97,87 %
30.11.2016 00:56 -4,1 C -5,0 C -6,7 C 88 % 0 lf 1033,4 hPa 0,0 l/m 0 min 0 min 0 W/m 0,0 km/h (0 Bft) 95,74 %
30.11.2016 00:58 -4,1 C -4,4 C -6,7 C 88 % 1 lf 1033,2 hPa 0,0 l/m 0 min 0 min 0 W/m 2,1 km/h (1 Bft) 95,74 %
30.11.2016 01:00 -4,1 C -4,4 C -6,7 C 88 % 1 lf 1033,2 hPa 0,0 l/m 0 min 0 min 0 W/m 4,2 km/h (1 Bft) 97,83 %
30.11.2016 01:02 -4,1 C -5,0 C -6,7 C 89 % 1 lf 1033,3 hPa 0,0 l/m 0 min 0 min 0 W/m 0,0 km/h (0 Bft) 93,62 %
30.11.2016 01:04 -4,2 C -5,0 C -6,7 C 89 % 1 lf 1033,3 hPa 0,0 l/m 0 min 0 min 0 W/m 0,0 km/h (0 Bft) 95,74 %
30.11.2016 01:06 -4,2 C -5,6 C -6,7 C 89 % 1 lf 1033,3 hPa 0,0 l/m 0 min 0 min 0 W/m 0,0 km/h (0 Bft) 95,74 %
30.11.2016 01:08 -4,2 C -5,0 C -6,7 C 89 % 1 lf 1033,3 hPa 0,0 l/m 0 min 0 min 0 W/m 0,0 km/h (0 Bft) 95,74 %
30.11.2016 01:10 -4,2 C -5,0 C -6,7 C 89 % 1 lf 1033,2 hPa 0,0 l/m 0 min 0 min 0 W/m 2,1 km/h (1 Bft) 91,49 %
30.11.2016 01:12 -4,2 C -5,0 C -6,7 C 89 % 1 lf 1033,2 hPa 0,0 l/m 0 min 0 min 0 W/m 2,1 km/h (1 Bft) 95,65 %
30.11.2016 01:14 -4,2 C -5,0 C -6,7 C 89 % 1 lf 1033,1 hPa 0,0 l/m 0 min 0 min 0 W/m 2,1 km/h (1 Bft) 93,62 %
30.11.2016 01:16 -4,3 C -5,0 C -6,7 C 89 % 1 lf 1033,2 hPa 0,0 l/m 0 min 0 min 0 W/m 0,0 km/h (0 Bft) 93,62 %
30.11.2016 01:18 -4,3 C -5,6 C -6,7 C 89 % 1 lf 1033,2 hPa 0,0 l/m 0 min 0 min 0 W/m 0,0 km/h (0 Bft) 91,49 %
30.11.2016 01:20 -4,3 C -5,6 C -6,7 C 89 % 1 lf 1033,2 hPa 0,0 l/m 0 min 0 min 0 W/m 2,1 km/h (1 Bft) 95,74 %
30.11.2016 01:22 -4,3 C -5,0 C -6,7 C 89 % 1 lf 1033,2 hPa 0,0 l/m 0 min 0 min 0 W/m 0,0 km/h (0 Bft) 95,74 %
30.11.2016 01:24 -4,3 C -5,6 C -7,2 C 89 % 1 lf 1033,2 hPa 0,0 l/m 0 min 0 min 0 W/m 2,1 km/h (1 Bft) 95,65 %
30.11.2016 01:26 -4,3 C -5,6 C -7,2 C 89 % 1 lf 1033,3 hPa 0,0 l/m 0 min 0 min 0 W/m 0,0 km/h (0 Bft) 93,62 %
30.11.2016 01:28 -4,4 C -5,6 C -7,2 C 89 % 1 lf 1033,2 hPa 0,0 l/m 0 min 0 min 0 W/m 2,1 km/h (1 Bft) 95,74 %
30.11.2016 01:30 -4,4 C -5,6 C -7,2 C 89 % 1 lf 1033,2 hPa 0,0 l/m 0 min 0 min 0 W/m 2,1 km/h (1 Bft) 93,62 %
30.11.2016 01:32 -4,4 C -5,6 C -7,2 C 89 % 1 lf 1033,1 hPa 0,0 l/m 0 min 0 min 0 W/m 4,2 km/h (1 Bft) 93,62 %
30.11.2016 01:34 -4,4 C -5,6 C -7,2 C 89 % 1 lf 1033,1 hPa 0,0 l/m 0 min 0 min 0 W/m 4,2 km/h (1 Bft) 89,36 %
30.11.2016 01:36 -4,5 C -5,6 C -7,2 C 89 % 1 lf 1033,2 hPa 0,0 l/m 0 min 0 min 0 W/m 4,2 km/h (1 Bft) 95,65 %
30.11.2016 01:38 -4,5 C -5,6 C -7,2 C 89 % 1 lf 1033,2 hPa 0,0 l/m 0 min 0 min 0 W/m 2,1 km/h (1 Bft) 95,74 %
30.11.2016 01:40 -4,6 C -5,6 C -7,2 C 89 % 1 lf 1033,2 hPa 0,0 l/m 0 min 0 min 0 W/m 2,1 km/h (1 Bft) 95,74 %
30.11.2016 01:42 -4,6 C -5,6 C -7,2 C 89 % 1 lf 1033,1 hPa 0,0 l/m 0 min 0 min 0 W/m 4,2 km/h (1 Bft) 93,62 %
30.11.2016 01:44 -4,6 C -5,6 C -7,2 C 89 % 1 lf 1033,1 hPa 0,0 l/m 0 min 0 min 0 W/m 4,2 km/h (1 Bft) 91,49 %
30.11.2016 01:46 -4,6 C -5,0 C -7,2 C 89 % 1 lf 1033,0 hPa 0,0 l/m 0 min 0 min 0 W/m 4,2 km/h (1 Bft) 93,48 %
30.11.2016 01:48 -4,6 C -5,0 C -7,2 C 89 % 1 lf 1032,9 hPa 0,0 l/m 0 min 0 min 0 W/m 4,2 km/h (1 Bft) 91,49 %
30.11.2016 01:50 -4,7 C -5,0 C -7,2 C 89 % 0 lf 1032,8 hPa 0,0 l/m 0 min 0 min 0 W/m 6,3 km/h (2 Bft) 93,48 %
30.11.2016 01:52 -4,7 C -5,0 C -7,2 C 89 % 0 lf 1032,7 hPa 0,0 l/m 0 min 0 min 0 W/m 8,4 km/h (2 Bft) 89,36 %
30.11.2016 01:54 -4,7 C -4,4 C -6,7 C 89 % 0 lf 1032,6 hPa 0,0 l/m 0 min 0 min 0 W/m 8,4 km/h (2 Bft) 93,62 %
30.11.2016 01:56 -4,7 C -4,4 C -6,7 C 89 % 0 lf 1032,6 hPa 0,0 l/m 0 min 0 min 0 W/m 8,4 km/h (2 Bft) 93,62 %
30.11.2016 01:58 -4,7 C -4,4 C -6,7 C 89 % 1 lf 1032,8 hPa 0,0 l/m 0 min 0 min 0 W/m 10,5 km/h (2 Bft) 89,13 %
30.11.2016 02:00 -4,7 C -4,4 C -6,7 C 89 % 1 lf 1032,8 hPa 0,0 l/m 0 min 0 min 0 W/m 10,5 km/h (2 Bft) 95,74 %
30.11.2016 02:02 -4,7 C -3,9 C -6,1 C 90 % 1 lf 1032,7 hPa 0,0 l/m 0 min 0 min 0 W/m 10,5 km/h (2 Bft) 91,49 %
30.11.2016 02:04 -4,7 C -3,9 C -6,1 C 90 % 1 lf 1032,7 hPa 0,0 l/m 0 min 0 min 0 W/m 12,6 km/h (3 Bft) 91,49 %
30.11.2016 02:06 -4,7 C -3,9 C -6,1 C 90 % 1 lf 1032,6 hPa 0,0 l/m 0 min 0 min 0 W/m 12,6 km/h (3 Bft) 93,62 %
30.11.2016 02:08 -4,6 C -3,3 C -6,1 C 90 % 1 lf 1032,4 hPa 0,0 l/m 0 min 0 min 0 W/m 14,6 km/h (3 Bft) 93,62 %
30.11.2016 02:10 -4,6 C -3,3 C -5,6 C 90 % 1 lf 1032,4 hPa 0,0 l/m 0 min 0 min 0 W/m 16,7 km/h (3 Bft) 93,48 %
30.11.2016 02:12 -4,5 C -3,3 C -5,6 C 90 % 1 lf 1032,3 hPa 0,0 l/m 0 min 0 min 4 W/m 10,5 km/h (2 Bft) 96,00 %
30.11.2016 02:14 -4,4 C -3,3 C -5,6 C 91 % 1 lf 1032,3 hPa 0,0 l/m 0 min 0 min 0 W/m 10,5 km/h (2 Bft) 93,62 %
30.11.2016 02:16 -4,3 C -3,3 C -5,6 C 91 % 1 lf 1032,4 hPa 0,0 l/m 0 min 0 min 5 W/m 10,5 km/h (2 Bft) 86,96 %
30.11.2016 02:18 -4,2 C -3,3 C -5,6 C 91 % 1 lf 1032,5 hPa 0,0 l/m 0 min 0 min 0 W/m 10,5 km/h (2 Bft) 91,49 %
30.11.2016 02:20 -4,2 C -2,8 C -5,6 C 91 % 1 lf 1032,4 hPa 0,0 l/m 0 min 0 min 0 W/m 10,5 km/h (2 Bft) 93,62 %
30.11.2016 02:22 -4,1 C -2,8 C -5,6 C 91 % 1 lf 1032,4 hPa 0,0 l/m 0 min 0 min 0 W/m 14,6 km/h (3 Bft) 95,74 %
30.11.2016 02:24 -4,1 C -2,8 C -5,0 C 91 % 1 lf 1032,5 hPa 0,0 l/m 0 min 0 min 0 W/m 12,6 km/h (3 Bft) 95,74 %
30.11.2016 02:26 -4,0 C -2,8 C -5,0 C 91 % 1 lf 1032,5 hPa 0,0 l/m 0 min 0 min 0 W/m 8,4 km/h (2 Bft) 97,87 %
30.11.2016 02:28 -3,9 C -3,3 C -5,6 C 91 % 1 lf 1032,6 hPa 0,0 l/m 0 min 0 min 0 W/m 6,3 km/h (2 Bft) 97,83 %
30.11.2016 02:30 -3,9 C -2,8 C -5,6 C 92 % 1 lf 1032,5 hPa 0,0 l/m 0 min 0 min 0 W/m 10,5 km/h (2 Bft) 95,74 %
30.11.2016 02:32 -3,8 C -2,8 C -5,6 C 92 % 1 lf 1032,4 hPa 0,0 l/m 0 min 0 min 0 W/m 10,5 km/h (2 Bft) 93,62 %
30.11.2016 02:34 -3,8 C -2,8 C -5,0 C 92 % 1 lf 1032,4 hPa 0,0 l/m 0 min 0 min 0 W/m 10,5 km/h (2 Bft) 91,49 %
30.11.2016 02:36 -3,7 C -2,8 C -5,0 C 92 % 1 lf 1032,5 hPa 0,0 l/m 0 min 0 min 0 W/m 12,6 km/h (3 Bft) 95,74 %
30.11.2016 02:38 -3,7 C -2,8 C -5,0 C 92 % 1 lf 1032,5 hPa 0,0 l/m 0 min 0 min 0 W/m 10,5 km/h (2 Bft) 95,65 %
30.11.2016 02:40 -3,7 C -2,8 C -5,0 C 92 % 1 lf 1032,5 hPa 0,0 l/m 0 min 0 min 0 W/m 10,5 km/h (2 Bft) 97,87 %
30.11.2016 02:42 -3,6 C -2,8 C -5,6 C 92 % 1 lf 1032,5 hPa 0,0 l/m 0 min 0 min 0 W/m 10,5 km/h (2 Bft) 95,74 %
30.11.2016 02:44 -3,6 C -2,8 C -5,6 C 92 % 1 lf 1032,6 hPa 0,0 l/m 0 min 0 min 0 W/m 6,3 km/h (2 Bft) 97,87 %
30.11.2016 02:46 -3,6 C -3,3 C -5,6 C 92 % 1 lf 1032,6 hPa 0,0 l/m 0 min 0 min 0 W/m 4,2 km/h (1 Bft) 97,87 %
30.11.2016 02:48 -3,6 C -3,3 C -5,6 C 92 % 1 lf 1032,8 hPa 0,0 l/m 0 min 0 min 0 W/m 4,2 km/h (1 Bft) 95,74 %
30.11.2016 02:50 -3,6 C -3,3 C -5,6 C 92 % 1 lf 1032,8 hPa 0,0 l/m 0 min 0 min 0 W/m 2,1 km/h (1 Bft) 93,48 %
30.11.2016 02:52 -3,6 C -3,9 C -5,6 C 92 % 1 lf 1032,9 hPa 0,0 l/m 0 min 0 min 0 W/m 0,0 km/h (0 Bft) 97,87 %
30.11.2016 02:54 -3,6 C -3,9 C -6,1 C 92 % 1 lf 1032,9 hPa 0,0 l/m 0 min 0 min 0 W/m 0,0 km/h (0 Bft) 100,00 %
30.11.2016 02:56 -3,6 C -3,9 C -6,1 C 92 % 0 lf 1032,8 hPa 0,0 l/m 0 min 0 min 0 W/m 0,0 km/h (0 Bft) 97,87 %
30.11.2016 02:58 -3,6 C -4,4 C -6,1 C 92 % 1 lf 1032,9 hPa 0,0 l/m 0 min 0 min 0 W/m 0,0 km/h (0 Bft) 97,87 %
30.11.2016 03:00 -3,6 C -4,4 C -6,1 C 92 % 0 lf 1032,9 hPa 0,0 l/m 0 min 0 min 0 W/m 0,0 km/h (0 Bft) 97,87 %
30.11.2016 03:02 -3,6 C -4,4 C -6,7 C 92 % 0 lf 1032,9 hPa 0,0 l/m 0 min 0 min 0 W/m 0,0 km/h (0 Bft) 97,83 %
30.11.2016 03:04 -3,6 C -4,4 C -6,7 C 92 % 0 lf 1033,0 hPa 0,0 l/m 0 min 0 min 0 W/m 0,0 km/h (0 Bft) 97,87 %
30.11.2016 03:06 -3,6 C -5,0 C -6,7 C 92 % 0 lf 1033,1 hPa 0,0 l/m 0 min 0 min 0 W/m 0,0 km/h (0 Bft) 100,00 %
30.11.2016 03:08 -3,6 C -5,0 C -6,7 C 92 % 0 lf 1033,1 hPa 0,0 l/m 0 min 0 min 0 W/m 0,0 km/h (0 Bft) 93,62 %
30.11.2016 03:10 -3,6 C -4,4 C -6,7 C 92 % 0 lf 1033,0 hPa 0,0 l/m 0 min 0 min 0 W/m 0,0 km/h (0 Bft) 100,00 %
30.11.2016 03:12 -3,7 C -5,0 C -6,7 C 92 % 0 lf 1033,0 hPa 0,0 l/m 0 min 0 min 0 W/m 0,0 km/h (0 Bft) 95,74 %
30.11.2016 03:14 -3,7 C -5,0 C -6,7 C 92 % 0 lf 1033,0 hPa 0,0 l/m 0 min 0 min 0 W/m 0,0 km/h (0 Bft) 97,87 %
30.11.2016 03:16 -3,7 C -5,0 C -6,7 C 92 % 0 lf 1033,0 hPa 0,0 l/m 0 min 0 min 0 W/m 0,0 km/h (0 Bft) 95,65 %
30.11.2016 03:18 -3,8 C -4,4 C -6,7 C 92 % 0 lf 1032,8 hPa 0,0 l/m 0 min 0 min 0 W/m 4,2 km/h (1 Bft) 100,00 %
30.11.2016 03:20 -3,8 C -4,4 C -6,7 C 92 % 0 lf 1032,8 hPa 0,0 l/m 0 min 0 min 0 W/m 6,3 km/h (2 Bft) 97,87 %
30.11.2016 03:22 -3,8 C -4,4 C -6,7 C 92 % 0 lf 1032,8 hPa 0,0 l/m 0 min 0 min 0 W/m 6,3 km/h (2 Bft) 97,87 %
30.11.2016 03:24 -3,9 C -5,0 C -6,7 C 92 % 0 lf 1032,8 hPa 0,0 l/m 0 min 0 min 0 W/m 4,2 km/h (1 Bft) 100,00 %
30.11.2016 03:26 -3,9 C -5,0 C -6,7 C 92 % 0 lf 1032,9 hPa 0,0 l/m 0 min 0 min 0 W/m 4,2 km/h (1 Bft) 95,65 %
30.11.2016 03:28 -3,9 C -5,0 C -6,7 C 92 % 0 lf 1033,0 hPa 0,0 l/m 0 min 0 min 0 W/m 4,2 km/h (1 Bft) 100,00 %
30.11.2016 03:30 -3,9 C -5,0 C -7,2 C 92 % 0 lf 1033,0 hPa 0,0 l/m 0 min 0 min 0 W/m 2,1 km/h (1 Bft) 100,00 %
30.11.2016 03:32 -4,0 C -5,0 C -7,2 C 92 % 0 lf 1033,0 hPa 0,0 l/m 0 min 0 min 0 W/m 4,2 km/h (1 Bft) 97,87 %
30.11.2016 03:34 -4,1 C -5,0 C -7,2 C 92 % 0 lf 1032,9 hPa 0,0 l/m 0 min 0 min 0 W/m 4,2 km/h (1 Bft) 97,87 %
30.11.2016 03:36 -4,1 C -5,0 C -6,7 C 91 % 0 lf 1032,8 hPa 0,0 l/m 0 min 0 min 0 W/m 4,2 km/h (1 Bft) 100,00 %
30.11.2016 03:38 -4,1 C -5,0 C -6,7 C 91 % 0 lf 1032,9 hPa 0,0 l/m 0 min 0 min 0 W/m 2,1 km/h (1 Bft) 100,00 %
30.11.2016 03:40 -4,2 C -5,0 C -6,7 C 91 % 0 lf 1032,9 hPa 0,0 l/m 0 min 0 min 0 W/m 4,2 km/h (1 Bft) 97,87 %
30.11.2016 03:42 -4,2 C -5,0 C -6,7 C 91 % 0 lf 1032,9 hPa 0,0 l/m 0 min 0 min 0 W/m 4,2 km/h (1 Bft) 93,62 %
30.11.2016 03:44 -4,2 C -5,0 C -6,7 C 91 % 0 lf 1032,9 hPa 0,0 l/m 0 min 0 min 0 W/m 4,2 km/h (1 Bft) 100,00 %
30.11.2016 03:46 -4,2 C -5,0 C -6,7 C 91 % 0 lf 1032,8 hPa 0,0 l/m 0 min 0 min 0 W/m 6,3 km/h (2 Bft) 97,87 %
30.11.2016 03:48 -4,3 C -5,0 C -7,2 C 91 % 0 lf 1032,8 hPa 0,0 l/m 0 min 0 min 0 W/m 6,3 km/h (2 Bft) 100,00 %
30.11.2016 03:50 -4,3 C -5,0 C -7,2 C 91 % 0 lf 1032,8 hPa 0,0 l/m 0 min 0 min 0 W/m 4,2 km/h (1 Bft) 95,65 %
30.11.2016 03:52 -4,3 C -5,0 C -7,2 C 91 % 0 lf 1032,9 hPa 0,0 l/m 0 min 0 min 0 W/m 2,1 km/h (1 Bft) 93,62 %
30.11.2016 03:54 -4,3 C -5,0 C -7,2 C 91 % 0 lf 1032,8 hPa 0,0 l/m 0 min 0 min 0 W/m 4,2 km/h (1 Bft) 100,00 %
30.11.2016 03:56 -4,4 C -5,0 C -6,7 C 91 % 0 lf 1032,8 hPa 0,0 l/m 0 min 0 min 0 W/m 2,1 km/h (1 Bft) 100,00 %
30.11.2016 03:58 -4,4 C -5,0 C -7,2 C 91 % 0 lf 1032,8 hPa 0,0 l/m 0 min 0 min 0 W/m 4,2 km/h (1 Bft) 91,49 %
30.11.2016 04:00 -4,4 C -5,0 C -6,7 C 91 % 0 lf 1032,7 hPa 0,0 l/m 0 min 0 min 0 W/m 8,4 km/h (2 Bft) 95,65 %
30.11.2016 04:05 -4,5 C -5,0 C -6,7 C 91 % 0 lf 1032,6 hPa 0,0 l/m 0 min 0 min 0 W/m 6,3 km/h (2 Bft) 94,37 %
30.11.2016 04:06 -4,5 C -4,4 C -6,7 C 91 % 0 lf 1032,6 hPa 0,0 l/m 0 min 0 min 0 W/m 6,3 km/h (2 Bft) 91,30 %
30.11.2016 04:08 -4,6 C -5,0 C -6,7 C 91 % 0 lf 1032,6 hPa 0,0 l/m 0 min 0 min 0 W/m 4,2 km/h (1 Bft) 91,49 %
30.11.2016 04:10 -4,6 C -4,4 C -6,7 C 91 % 0 lf 1032,6 hPa 0,0 l/m 0 min 0 min 0 W/m 6,3 km/h (2 Bft) 93,62 %
30.11.2016 04:12 -4,6 C -5,0 C -6,7 C 91 % 0 lf 1032,6 hPa 0,0 l/m 0 min 0 min 0 W/m 6,3 km/h (2 Bft) 93,48 %
30.11.2016 04:14 -4,6 C -4,4 C -6,7 C 91 % 0 lf 1032,5 hPa 0,0 l/m 0 min 0 min 0 W/m 10,5 km/h (2 Bft) 91,49 %
30.11.2016 04:16 -4,6 C -4,4 C -6,7 C 91 % 0 lf 1032,4 hPa 0,0 l/m 0 min 0 min 0 W/m 12,6 km/h (3 Bft) 91,49 %
30.11.2016 04:18 -4,6 C -5,0 C -6,7 C 91 % 0 lf 1032,3 hPa 0,0 l/m 0 min 0 min 0 W/m 8,4 km/h (2 Bft) 91,49 %
30.11.2016 04:20 -4,6 C -4,4 C -6,7 C 91 % 0 lf 1032,3 hPa 0,0 l/m 0 min 0 min 0 W/m 8,4 km/h (2 Bft) 91,49 %
30.11.2016 04:22 -4,6 C -4,4 C -6,7 C 92 % 0 lf 1032,4 hPa 0,0 l/m 0 min 0 min 0 W/m 10,5 km/h (2 Bft) 93,62 %
30.11.2016 04:24 -4,7 C -4,4 C -6,7 C 92 % 0 lf 1032,4 hPa 0,0 l/m 0 min 0 min 0 W/m 8,4 km/h (2 Bft) 100,00 %
30.11.2016 04:26 -4,7 C -4,4 C -6,7 C 92 % 0 lf 1032,4 hPa 0,0 l/m 0 min 0 min 0 W/m 10,5 km/h (2 Bft) 91,49 %
30.11.2016 04:31 -4,7 C -3,9 C -6,7 C 92 % 0 lf 1032,3 hPa 0,0 l/m 0 min 0 min 0 W/m 10,5 km/h (2 Bft) 100,00 %
30.11.2016 04:32 -4,7 C -3,9 C -6,7 C 92 % 0 lf 1032,3 hPa 0,0 l/m 0 min 0 min 0 W/m 8,4 km/h (2 Bft) 91,67 %
30.11.2016 04:34 -4,6 C -3,9 C -6,7 C 92 % 0 lf 1032,3 hPa 0,0 l/m 0 min 0 min 0 W/m 8,4 km/h (2 Bft) 93,62 %
30.11.2016 04:36 -4,6 C -3,9 C -6,1 C 92 % 0 lf 1032,4 hPa 0,0 l/m 0 min 0 min 0 W/m 10,5 km/h (2 Bft) 91,30 %
30.11.2016 04:38 -4,6 C -3,9 C -6,7 C 92 % 0 lf 1032,4 hPa 0,0 l/m 0 min 0 min 0 W/m 4,2 km/h (1 Bft) 95,74 %
30.11.2016 04:40 -4,6 C -4,4 C -6,7 C 92 % 0 lf 1032,6 hPa 0,0 l/m 0 min 0 min 0 W/m 2,1 km/h (1 Bft) 93,62 %
30.11.2016 04:42 -4,6 C -4,4 C -6,7 C 92 % 0 lf 1032,7 hPa 0,0 l/m 0 min 0 min 0 W/m 2,1 km/h (1 Bft) 95,74 %
30.11.2016 04:44 -4,6 C -4,4 C -6,7 C 92 % 0 lf 1032,6 hPa 0,0 l/m 0 min 0 min 0 W/m 2,1 km/h (1 Bft) 95,74 %
30.11.2016 04:46 -4,6 C -5,0 C -6,7 C 92 % 0 lf 1032,7 hPa 0,0 l/m 0 min 0 min 0 W/m 4,2 km/h (1 Bft) 97,83 %
30.11.2016 04:48 -4,6 C -5,0 C -6,7 C 92 % 0 lf 1032,7 hPa 0,0 l/m 0 min 0 min 0 W/m 2,1 km/h (1 Bft) 97,87 %
30.11.2016 04:50 -4,6 C -5,0 C -6,7 C 92 % 0 lf 1032,8 hPa 0,0 l/m 0 min 0 min 0 W/m 2,1 km/h (1 Bft) 95,74 %
30.11.2016 04:52 -4,6 C -5,0 C -7,2 C 92 % 0 lf 1032,7 hPa 0,0 l/m 0 min 0 min 0 W/m 2,1 km/h (1 Bft) 93,62 %
30.11.2016 04:54 -4,6 C -5,6 C -6,7 C 92 % 0 lf 1032,8 hPa 0,0 l/m 0 min 0 min 0 W/m 0,0 km/h (0 Bft) 97,87 %
30.11.2016 04:56 -4,6 C -5,6 C -7,2 C 92 % 0 lf 1032,8 hPa 0,0 l/m 0 min 0 min 0 W/m 0,0 km/h (0 Bft) 97,87 %
30.11.2016 04:58 -4,6 C -5,6 C -7,2 C 92 % 0 lf 1032,8 hPa 0,0 l/m 0 min 0 min 0 W/m 0,0 km/h (0 Bft) 93,62 %
30.11.2016 05:00 -4,6 C -5,0 C -7,2 C 92 % 0 lf 1032,7 hPa 0,0 l/m 0 min 0 min 0 W/m 0,0 km/h (0 Bft) 95,65 %
30.11.2016 05:02 -4,6 C -5,0 C -7,2 C 92 % 0 lf 1032,8 hPa 0,0 l/m 0 min 0 min 0 W/m 2,1 km/h (1 Bft) 95,74 %
30.11.2016 05:04 -4,6 C -5,0 C -7,2 C 92 % 0 lf 1032,8 hPa 0,0 l/m 0 min 0 min 0 W/m 2,1 km/h (1 Bft) 95,74 %
30.11.2016 05:06 -4,7 C -5,6 C -7,2 C 92 % 0 lf 1032,8 hPa 0,0 l/m 0 min 0 min 0 W/m 2,1 km/h (1 Bft) 97,87 %
30.11.2016 05:08 -4,7 C -5,6 C -7,2 C 92 % 0 lf 1032,8 hPa 0,0 l/m 0 min 0 min 0 W/m 2,1 km/h (1 Bft) 100,00 %
30.11.2016 05:10 -4,7 C -5,6 C -7,2 C 92 % 0 lf 1032,9 hPa 0,0 l/m 0 min 0 min 5 W/m 4,2 km/h (1 Bft) 95,65 %
30.11.2016 05:12 -4,7 C -5,0 C -7,2 C 92 % 0 lf 1032,9 hPa 0,0 l/m 0 min 0 min 5 W/m 4,2 km/h (1 Bft) 97,87 %
30.11.2016 05:14 -4,7 C -5,0 C -7,2 C 92 % 0 lf 1032,8 hPa 0,0 l/m 0 min 0 min 5 W/m 4,2 km/h (1 Bft) 100,00 %
30.11.2016 05:16 -4,8 C -5,0 C -7,2 C 92 % 0 lf 1032,8 hPa 0,0 l/m 0 min 0 min 5 W/m 4,2 km/h (1 Bft) 95,74 %
30.11.2016 05:18 -4,8 C -5,0 C -7,2 C 92 % 0 lf 1032,9 hPa 0,0 l/m 0 min 0 min 5 W/m 4,2 km/h (1 Bft) 97,87 %
30.11.2016 05:20 -4,8 C -5,0 C -7,2 C 92 % 0 lf 1032,9 hPa 0,0 l/m 0 min 0 min 5 W/m 4,2 km/h (1 Bft) 100,00 %
30.11.2016 05:22 -4,8 C -5,0 C -7,2 C 92 % 0 lf 1032,9 hPa 0,0 l/m 0 min 0 min 0 W/m 6,3 km/h (2 Bft) 93,48 %
30.11.2016 05:24 -4,8 C -5,0 C -7,2 C 92 % 0 lf 1032,9 hPa 0,0 l/m 0 min 0 min 0 W/m 6,3 km/h (2 Bft) 95,74 %
30.11.2016 05:26 -4,8 C -5,0 C -7,2 C 92 % 0 lf 1032,9 hPa 0,0 l/m 0 min 0 min 5 W/m 4,2 km/h (1 Bft) 100,00 %
30.11.2016 05:28 -4,9 C -5,0 C -7,2 C 92 % 0 lf 1033,0 hPa 0,0 l/m 0 min 0 min 5 W/m 4,2 km/h (1 Bft) 95,74 %
30.11.2016 05:30 -4,9 C -5,6 C -7,2 C 92 % 0 lf 1033,1 hPa 0,0 l/m 0 min 0 min 5 W/m 2,1 km/h (1 Bft) 100,00 %
30.11.2016 05:32 -4,9 C -5,0 C -7,2 C 92 % 0 lf 1033,1 hPa 0,0 l/m 0 min 0 min 5 W/m 2,1 km/h (1 Bft) 100,00 %
30.11.2016 05:34 -4,9 C -5,0 C -7,2 C 92 % 0 lf 1033,0 hPa 0,0 l/m 0 min 0 min 5 W/m 0,0 km/h (0 Bft) 97,83 %
30.11.2016 05:36 -4,9 C -5,0 C -7,2 C 92 % 0 lf 1033,0 hPa 0,0 l/m 0 min 0 min 5 W/m 0,0 km/h (0 Bft) 100,00 %
30.11.2016 05:38 -4,9 C -5,0 C -7,2 C 92 % 0 lf 1033,0 hPa 0,0 l/m 0 min 0 min 5 W/m 2,1 km/h (1 Bft) 100,00 %
30.11.2016 05:40 -5,0 C -5,0 C -7,2 C 92 % 0 lf 1033,0 hPa 0,0 l/m 0 min 0 min 5 W/m 2,1 km/h (1 Bft) 100,00 %
30.11.2016 05:42 -5,0 C -5,0 C -7,2 C 92 % 0 lf 1032,9 hPa 0,0 l/m 0 min 0 min 5 W/m 4,2 km/h (1 Bft) 97,87 %
30.11.2016 05:44 -5,0 C -5,0 C -7,2 C 92 % 0 lf 1032,9 hPa 0,0 l/m 0 min 0 min 5 W/m 4,2 km/h (1 Bft) 97,83 %
30.11.2016 05:46 -5,0 C -5,0 C -7,2 C 92 % 0 lf 1032,9 hPa 0,0 l/m 0 min 0 min 5 W/m 6,3 km/h (2 Bft) 97,87 %
30.11.2016 05:48 -5,0 C -5,0 C -7,2 C 92 % 0 lf 1032,8 hPa 0,0 l/m 0 min 0 min 5 W/m 8,4 km/h (2 Bft) 95,74 %
30.11.2016 05:50 -5,0 C -5,0 C -7,2 C 92 % 0 lf 1032,8 hPa 0,0 l/m 0 min 0 min 5 W/m 6,3 km/h (2 Bft) 95,74 %
30.11.2016 05:52 -5,1 C -5,0 C -7,2 C 92 % 0 lf 1032,8 hPa 0,0 l/m 0 min 0 min 5 W/m 6,3 km/h (2 Bft) 97,87 %
30.11.2016 05:54 -5,1 C -5,0 C -7,2 C 92 % 0 lf 1032,6 hPa 0,0 l/m 0 min 0 min 5 W/m 10,5 km/h (2 Bft) 95,74 %
30.11.2016 05:56 -5,1 C -5,0 C -7,2 C 92 % 0 lf 1032,6 hPa 0,0 l/m 0 min 0 min 5 W/m 10,5 km/h (2 Bft) 97,83 %
30.11.2016 05:58 -5,1 C -5,0 C -7,2 C 92 % 0 lf 1032,5 hPa 0,0 l/m 0 min 0 min 5 W/m 10,5 km/h (2 Bft) 95,74 %
30.11.2016 06:00 -5,1 C -5,0 C -6,7 C 92 % 0 lf 1032,6 hPa 0,0 l/m 0 min 0 min 5 W/m 10,5 km/h (2 Bft) 91,49 %
30.11.2016 06:02 -5,1 C -5,0 C -6,7 C 92 % 0 lf 1032,7 hPa 0,0 l/m 0 min 0 min 5 W/m 2,1 km/h (1 Bft) 93,62 %
30.11.2016 06:06 -5,1 C -4,4 C -6,7 C 92 % 0 lf 1032,6 hPa 0,0 l/m 0 min 0 min 5 W/m 8,4 km/h (2 Bft) 95,74 %
30.11.2016 06:08 -5,1 C -4,4 C -6,7 C 92 % 0 lf 1032,6 hPa 0,0 l/m 0 min 0 min 5 W/m 4,2 km/h (1 Bft) 95,65 %
30.11.2016 06:10 -5,0 C -4,4 C -6,7 C 92 % 0 lf 1032,6 hPa 0,0 l/m 0 min 0 min 5 W/m 2,1 km/h (1 Bft) 93,62 %
30.11.2016 06:12 -5,0 C -4,4 C -6,7 C 92 % 0 lf 1032,6 hPa 0,0 l/m 0 min 0 min 5 W/m 0,0 km/h (0 Bft) 95,74 %
30.11.2016 06:14 -5,0 C -5,0 C -7,2 C 92 % 0 lf 1032,6 hPa 0,0 l/m 0 min 0 min 5 W/m 0,0 km/h (0 Bft) 95,74 %
30.11.2016 06:16 -5,0 C -5,0 C -7,2 C 92 % 0 lf 1032,6 hPa 0,0 l/m 0 min 0 min 5 W/m 0,0 km/h (0 Bft) 95,74 %
30.11.2016 06:18 -5,0 C -5,6 C -7,2 C 92 % 0 lf 1032,7 hPa 0,0 l/m 0 min 0 min 5 W/m 0,0 km/h (0 Bft) 95,74 %
30.11.2016 06:20 -5,0 C -5,6 C -6,7 C 92 % 0 lf 1032,7 hPa 0,0 l/m 0 min 0 min 5 W/m 0,0 km/h (0 Bft) 93,48 %
30.11.2016 06:22 -5,0 C -5,0 C -6,7 C 92 % 0 lf 1032,8 hPa 0,0 l/m 0 min 0 min 5 W/m 0,0 km/h (0 Bft) 93,62 %
30.11.2016 06:24 -5,0 C -5,0 C -7,2 C 93 % 0 lf 1032,8 hPa 0,0 l/m 0 min 0 min 5 W/m 0,0 km/h (0 Bft) 95,74 %
30.11.2016 06:26 -5,0 C -5,0 C -7,2 C 93 % 0 lf 1032,8 hPa 0,0 l/m 0 min 0 min 5 W/m 0,0 km/h (0 Bft) 89,36 %
30.11.2016 06:28 -5,0 C -5,0 C -7,2 C 93 % 0 lf 1032,8 hPa 0,0 l/m 0 min 0 min 5 W/m 0,0 km/h (0 Bft) 93,62 %
30.11.2016 06:30 -5,0 C -5,6 C -7,2 C 93 % 0 lf 1032,8 hPa 0,0 l/m 0 min 0 min 5 W/m 0,0 km/h (0 Bft) 93,62 %
30.11.2016 06:32 -5,0 C -5,6 C -7,2 C 93 % 0 lf 1032,7 hPa 0,0 l/m 0 min 0 min 5 W/m 6,3 km/h (2 Bft) 93,48 %
30.11.2016 06:34 -5,0 C -5,6 C -7,2 C 93 % 0 lf 1032,7 hPa 0,0 l/m 0 min 0 min 5 W/m 6,3 km/h (2 Bft) 95,74 %
30.11.2016 06:36 -5,0 C -5,0 C -7,2 C 93 % 0 lf 1032,7 hPa 0,0 l/m 0 min 0 min 5 W/m 4,2 km/h (1 Bft) 91,49 %
30.11.2016 06:38 -5,0 C -5,0 C -7,2 C 93 % 0 lf 1032,7 hPa 0,0 l/m 0 min 0 min 5 W/m 4,2 km/h (1 Bft) 95,74 %
30.11.2016 06:40 -5,0 C -5,0 C -7,2 C 93 % 0 lf 1032,7 hPa 0,0 l/m 0 min 0 min 5 W/m 6,3 km/h (2 Bft) 95,74 %
30.11.2016 06:42 -5,0 C -5,0 C -7,2 C 93 % 0 lf 1032,6 hPa 0,0 l/m 0 min 0 min 5 W/m 4,2 km/h (1 Bft) 95,74 %
30.11.2016 06:44 -5,1 C -5,0 C -7,2 C 93 % 0 lf 1032,6 hPa 0,0 l/m 0 min 0 min 5 W/m 4,2 km/h (1 Bft) 93,48 %
30.11.2016 06:46 -5,0 C -5,0 C -7,2 C 93 % 0 lf 1032,7 hPa 0,0 l/m 0 min 0 min 5 W/m 2,1 km/h (1 Bft) 93,62 %
30.11.2016 06:48 -5,0 C -4,4 C -7,2 C 93 % 0 lf 1032,7 hPa 0,0 l/m 0 min 0 min 5 W/m 6,3 km/h (2 Bft) 93,62 %
30.11.2016 06:50 -5,0 C -4,4 C -7,2 C 93 % 0 lf 1032,8 hPa 0,0 l/m 0 min 0 min 5 W/m 6,3 km/h (2 Bft) 95,74 %
30.11.2016 06:52 -5,0 C -5,0 C -7,2 C 93 % 0 lf 1032,6 hPa 0,0 l/m 0 min 0 min 5 W/m 4,2 km/h (1 Bft) 93,62 %
30.11.2016 06:54 -5,0 C -5,0 C -7,2 C 93 % 0 lf 1032,7 hPa 0,0 l/m 0 min 0 min 5 W/m 4,2 km/h (1 Bft) 95,65 %
30.11.2016 06:56 -5,1 C -5,0 C -7,2 C 93 % 0 lf 1032,7 hPa 0,0 l/m 0 min 0 min 5 W/m 4,2 km/h (1 Bft) 95,74 %
30.11.2016 06:58 -5,1 C -5,0 C -7,2 C 93 % 0 lf 1032,8 hPa 0,0 l/m 0 min 0 min 5 W/m 2,1 km/h (1 Bft) 91,49 %
30.11.2016 07:00 -5,1 C -5,0 C -7,2 C 93 % 0 lf 1032,9 hPa 0,0 l/m 0 min 0 min 5 W/m 2,1 km/h (1 Bft) 93,62 %
30.11.2016 07:02 -5,1 C -5,6 C -7,2 C 93 % 0 lf 1032,9 hPa 0,0 l/m 0 min 0 min 5 W/m 2,1 km/h (1 Bft) 97,87 %
30.11.2016 07:04 -5,1 C -5,6 C -7,2 C 93 % 0 lf 1032,9 hPa 0,0 l/m 0 min 0 min 5 W/m 2,1 km/h (1 Bft) 97,87 %
30.11.2016 07:06 -5,1 C -5,6 C -7,2 C 93 % 0 lf 1032,8 hPa 0,0 l/m 0 min 0 min 5 W/m 2,1 km/h (1 Bft) 97,83 %
30.11.2016 07:08 -5,1 C -5,0 C -7,2 C 93 % 0 lf 1032,8 hPa 0,0 l/m 0 min 0 min 5 W/m 2,1 km/h (1 Bft) 97,87 %
30.11.2016 07:10 -5,1 C -5,0 C -7,2 C 93 % 0 lf 1032,9 hPa 0,0 l/m 0 min 0 min 5 W/m 4,2 km/h (1 Bft) 100,00 %
30.11.2016 07:12 -5,1 C -5,0 C -7,2 C 93 % 0 lf 1032,8 hPa 0,0 l/m 0 min 0 min 5 W/m 4,2 km/h (1 Bft) 97,87 %
30.11.2016 07:14 -5,1 C -5,0 C -7,2 C 93 % 0 lf 1032,8 hPa 0,0 l/m 0 min 0 min 5 W/m 6,3 km/h (2 Bft) 95,74 %
30.11.2016 07:16 -5,1 C -5,0 C -7,2 C 93 % 0 lf 1032,9 hPa 0,0 l/m 0 min 0 min 5 W/m 4,2 km/h (1 Bft) 100,00 %
30.11.2016 07:18 -5,1 C -5,0 C -7,2 C 93 % 0 lf 1033,0 hPa 0,0 l/m 0 min 0 min 5 W/m 2,1 km/h (1 Bft) 100,00 %
30.11.2016 07:20 -5,1 C -5,0 C -7,2 C 93 % 0 lf 1032,9 hPa 0,0 l/m 0 min 0 min 5 W/m 4,2 km/h (1 Bft) 100,00 %
30.11.2016 07:22 -5,1 C -5,0 C -7,2 C 93 % 0 lf 1032,9 hPa 0,0 l/m 0 min 0 min 5 W/m 4,2 km/h (1 Bft) 93,62 %
30.11.2016 07:24 -5,2 C -5,0 C -7,2 C 93 % 0 lf 1032,9 hPa 0,0 l/m 0 min 0 min 5 W/m 4,2 km/h (1 Bft) 93,62 %
30.11.2016 07:26 -5,2 C -5,0 C -7,2 C 93 % 0 lf 1032,9 hPa 0,0 l/m 0 min 0 min 5 W/m 2,1 km/h (1 Bft) 97,87 %
30.11.2016 07:28 -5,2 C -5,0 C -7,2 C 93 % 0 lf 1032,8 hPa 0,0 l/m 0 min 0 min 5 W/m 4,2 km/h (1 Bft) 97,87 %
30.11.2016 07:30 -5,2 C -5,0 C -7,2 C 93 % 0 lf 1032,9 hPa 0,0 l/m 0 min 0 min 5 W/m 4,2 km/h (1 Bft) 95,65 %
30.11.2016 07:32 -5,2 C -5,0 C -7,2 C 93 % 0 lf 1032,9 hPa 0,0 l/m 0 min 0 min 5 W/m 2,1 km/h (1 Bft) 95,74 %
30.11.2016 07:34 -5,2 C -5,0 C -7,2 C 93 % 0 lf 1032,9 hPa 0,0 l/m 0 min 0 min 5 W/m 2,1 km/h (1 Bft) 95,74 %
30.11.2016 07:36 -5,2 C -5,0 C -7,2 C 93 % 0 lf 1032,9 hPa 0,0 l/m 0 min 0 min 5 W/m 2,1 km/h (1 Bft) 97,87 %
30.11.2016 07:38 -5,2 C -5,6 C -7,8 C 93 % 0 lf 1032,9 hPa 0,0 l/m 0 min 0 min 5 W/m 2,1 km/h (1 Bft) 93,62 %
30.11.2016 07:40 -5,2 C -5,0 C -7,8 C 93 % 0 lf 1032,8 hPa 0,0 l/m 0 min 0 min 5 W/m 6,3 km/h (2 Bft) 97,87 %
30.11.2016 07:42 -5,2 C -5,0 C -7,2 C 93 % 0 lf 1032,8 hPa 0,0 l/m 0 min 0 min 5 W/m 6,3 km/h (2 Bft) 95,65 %
30.11.2016 07:44 -5,2 C -5,0 C -7,2 C 93 % 0 lf 1032,9 hPa 0,0 l/m 0 min 0 min 5 W/m 6,3 km/h (2 Bft) 93,62 %
30.11.2016 07:46 -5,2 C -5,0 C -7,2 C 93 % 0 lf 1032,8 hPa 0,0 l/m 0 min 0 min 5 W/m 6,3 km/h (2 Bft) 95,74 %
30.11.2016 07:48 -5,2 C -5,0 C -7,2 C 93 % 0 lf 1032,8 hPa 0,0 l/m 0 min 0 min 5 W/m 6,3 km/h (2 Bft) 97,87 %
30.11.2016 07:50 -5,2 C -4,4 C -7,2 C 93 % 0 lf 1032,8 hPa 0,0 l/m 0 min 0 min 5 W/m 6,3 km/h (2 Bft) 95,74 %
30.11.2016 07:52 -5,2 C -4,4 C -7,2 C 93 % 0 lf 1032,9 hPa 0,0 l/m 0 min 0 min 5 W/m 6,3 km/h (2 Bft) 95,65 %
30.11.2016 07:54 -5,2 C -4,4 C -7,2 C 93 % 0 lf 1032,9 hPa 0,0 l/m 0 min 0 min 5 W/m 6,3 km/h (2 Bft) 91,49 %
30.11.2016 07:56 -5,2 C -4,4 C -7,2 C 93 % 0 lf 1032,9 hPa 0,0 l/m 0 min 0 min 0 W/m 6,3 km/h (2 Bft) 95,74 %
30.11.2016 07:58 -5,2 C -4,4 C -7,2 C 93 % 0 lf 1032,9 hPa 0,0 l/m 0 min 0 min 0 W/m 4,2 km/h (1 Bft) 91,49 %
30.11.2016 08:00 -5,2 C -5,0 C -7,2 C 93 % 0 lf 1033,0 hPa 0,0 l/m 0 min 0 min 7 W/m 4,2 km/h (1 Bft) 95,74 %
30.11.2016 08:02 -5,2 C -5,0 C -7,2 C 93 % 0 lf 1033,0 hPa 0,0 l/m 0 min 0 min 7 W/m 4,2 km/h (1 Bft) 93,62 %
30.11.2016 08:04 -5,2 C -5,0 C -7,2 C 93 % 0 lf 1033,1 hPa 0,0 l/m 0 min 0 min 7 W/m 4,2 km/h (1 Bft) 95,65 %
30.11.2016 08:06 -5,2 C -5,0 C -7,2 C 93 % 0 lf 1033,2 hPa 0,0 l/m 0 min 0 min 7 W/m 4,2 km/h (1 Bft) 95,74 %
30.11.2016 08:08 -5,2 C -5,6 C -7,2 C 93 % 0 lf 1033,2 hPa 0,0 l/m 0 min 0 min 7 W/m 4,2 km/h (1 Bft) 95,74 %
30.11.2016 08:10 -5,2 C -5,6 C -7,2 C 93 % 0 lf 1033,3 hPa 0,0 l/m 0 min 0 min 7 W/m 4,2 km/h (1 Bft) 93,62 %
30.11.2016 08:12 -5,2 C -5,6 C -7,2 C 93 % 0 lf 1033,4 hPa 0,0 l/m 0 min 0 min 8 W/m 4,2 km/h (1 Bft) 93,62 %
30.11.2016 08:14 -5,2 C -5,6 C -7,2 C 93 % 0 lf 1033,4 hPa 0,0 l/m 0 min 0 min 9 W/m 2,1 km/h (1 Bft) 93,62 %
30.11.2016 08:16 -5,2 C -5,6 C -7,8 C 93 % 0 lf 1033,4 hPa 0,0 l/m 0 min 0 min 9 W/m 2,1 km/h (1 Bft) 91,30 %
30.11.2016 08:18 -5,2 C -5,6 C -7,8 C 93 % 0 lf 1033,5 hPa 0,0 l/m 0 min 0 min 11 W/m 2,1 km/h (1 Bft) 97,87 %
30.11.2016 08:20 -5,2 C -5,6 C -7,8 C 93 % 0 lf 1033,5 hPa 0,0 l/m 0 min 0 min 11 W/m 2,1 km/h (1 Bft) 100,00 %
30.11.2016 08:22 -5,2 C -5,6 C -7,8 C 93 % 0 lf 1033,5 hPa 0,0 l/m 0 min 0 min 11 W/m 2,1 km/h (1 Bft) 97,87 %
30.11.2016 08:24 -5,3 C -6,1 C -7,8 C 93 % 0 lf 1033,4 hPa 0,0 l/m 0 min 0 min 12 W/m 2,1 km/h (1 Bft) 95,74 %
30.11.2016 08:26 -5,3 C -5,6 C -7,8 C 93 % 0 lf 1033,5 hPa 0,0 l/m 0 min 0 min 13 W/m 2,1 km/h (1 Bft) 100,00 %
30.11.2016 08:28 -5,3 C -5,6 C -7,2 C 93 % 0 lf 1033,5 hPa 0,0 l/m 0 min 0 min 14 W/m 2,1 km/h (1 Bft) 95,65 %
30.11.2016 08:30 -5,3 C -5,6 C -7,2 C 93 % 0 lf 1033,5 hPa 0,0 l/m 0 min 0 min 17 W/m 2,1 km/h (1 Bft) 97,87 %
30.11.2016 08:32 -5,3 C -5,0 C -7,2 C 93 % 0 lf 1033,5 hPa 0,0 l/m 2 min 0 min 19 W/m 4,2 km/h (1 Bft) 95,74 %
30.11.2016 08:34 -5,3 C -5,0 C -7,2 C 93 % 0 lf 1033,5 hPa 0,0 l/m 2 min 0 min 19 W/m 4,2 km/h (1 Bft) 95,74 %
30.11.2016 08:36 -5,3 C -5,0 C -7,2 C 93 % 0 lf 1033,5 hPa 0,0 l/m 2 min 0 min 21 W/m 4,2 km/h (1 Bft) 97,87 %
30.11.2016 08:38 -5,3 C -5,0 C -7,2 C 93 % 0 lf 1033,5 hPa 0,0 l/m 2 min 0 min 21 W/m 6,3 km/h (2 Bft) 97,87 %
30.11.2016 08:40 -5,3 C -4,4 C -7,2 C 93 % 0 lf 1033,5 hPa 0,0 l/m 2 min 0 min 22 W/m 4,2 km/h (1 Bft) 100,00 %
30.11.2016 08:42 -5,3 C -4,4 C -7,2 C 93 % 0 lf 1033,5 hPa 0,0 l/m 2 min 0 min 24 W/m 4,2 km/h (1 Bft) 100,00 %
30.11.2016 08:44 -5,3 C -4,4 C -7,2 C 93 % 0 lf 1033,5 hPa 0,0 l/m 2 min 0 min 25 W/m 8,4 km/h (2 Bft) 93,62 %
30.11.2016 08:46 -5,3 C -4,4 C -7,2 C 93 % 0 lf 1033,5 hPa 0,0 l/m 2 min 0 min 35 W/m 4,2 km/h (1 Bft) 95,74 %
30.11.2016 08:48 -5,3 C -4,4 C -6,7 C 93 % 0 lf 1033,5 hPa 0,0 l/m 2 min 0 min 40 W/m 6,3 km/h (2 Bft) 97,87 %
30.11.2016 08:50 -5,3 C -4,4 C -6,7 C 93 % 0 lf 1033,5 hPa 0,0 l/m 2 min 0 min 41 W/m 6,3 km/h (2 Bft) 95,65 %
30.11.2016 08:52 -5,3 C -3,9 C -6,7 C 94 % 0 lf 1033,5 hPa 0,0 l/m 2 min 0 min 43 W/m 4,2 km/h (1 Bft) 97,87 %
30.11.2016 08:54 -5,3 C -3,9 C -6,7 C 94 % 0 lf 1033,5 hPa 0,0 l/m 2 min 0 min 44 W/m 6,3 km/h (2 Bft) 95,74 %
30.11.2016 08:56 -5,3 C -3,9 C -6,7 C 94 % 0 lf 1033,5 hPa 0,0 l/m 2 min 0 min 45 W/m 4,2 km/h (1 Bft) 93,62 %
30.11.2016 08:58 -5,2 C -3,9 C -6,7 C 94 % 0 lf 1033,5 hPa 0,0 l/m 2 min 0 min 46 W/m 4,2 km/h (1 Bft) 97,87 %
30.11.2016 09:00 -5,2 C -3,9 C -6,7 C 94 % 0 lf 1033,5 hPa 0,0 l/m 2 min 0 min 47 W/m 2,1 km/h (1 Bft) 97,87 %
30.11.2016 09:02 -5,2 C -3,9 C -6,7 C 94 % 0 lf 1033,5 hPa 0,0 l/m 2 min 0 min 48 W/m 6,3 km/h (2 Bft) 95,65 %
30.11.2016 09:04 -5,2 C -3,9 C -6,7 C 94 % 0 lf 1033,5 hPa 0,0 l/m 2 min 0 min 49 W/m 6,3 km/h (2 Bft) 95,74 %
30.11.2016 09:06 -5,1 C -3,9 C -6,7 C 94 % 0 lf 1033,4 hPa 0,0 l/m 2 min 0 min 55 W/m 6,3 km/h (2 Bft) 97,87 %
30.11.2016 09:08 -5,1 C -3,9 C -6,1 C 94 % 0 lf 1033,4 hPa 0,0 l/m 2 min 0 min 59 W/m 4,2 km/h (1 Bft) 97,87 %
30.11.2016 09:10 -5,1 C -3,9 C -6,1 C 94 % 0 lf 1033,4 hPa 0,0 l/m 2 min 0 min 71 W/m 4,2 km/h (1 Bft) 95,74 %
30.11.2016 09:12 -5,1 C -3,9 C -6,1 C 94 % 0 lf 1033,4 hPa 0,0 l/m 2 min 0 min 84 W/m 6,3 km/h (2 Bft) 89,36 %
30.11.2016 09:14 -5,0 C -3,9 C -6,1 C 94 % 0 lf 1033,4 hPa 0,0 l/m 2 min 0 min 86 W/m 4,2 km/h (1 Bft) 93,48 %
30.11.2016 09:16 -5,0 C -3,9 C -6,1 C 94 % 0 lf 1033,4 hPa 0,0 l/m 2 min 0 min 89 W/m 4,2 km/h (1 Bft) 95,74 %
30.11.2016 09:18 -4,9 C -3,9 C -6,1 C 94 % 0 lf 1033,3 hPa 0,0 l/m 2 min 0 min 92 W/m 6,3 km/h (2 Bft) 93,62 %
30.11.2016 09:20 -4,9 C -3,9 C -6,1 C 94 % 0 lf 1033,4 hPa 0,0 l/m 2 min 0 min 100 W/m 8,4 km/h (2 Bft) 95,74 %
30.11.2016 09:22 -4,9 C -3,9 C -6,1 C 94 % 0 lf 1033,4 hPa 0,0 l/m 2 min 0 min 106 W/m 8,4 km/h (2 Bft) 97,87 %
30.11.2016 09:24 -4,9 C -3,3 C -6,1 C 94 % 1 lf 1033,3 hPa 0,0 l/m 2 min 0 min 105 W/m 10,5 km/h (2 Bft) 97,87 %
30.11.2016 09:26 -4,8 C -3,3 C -6,1 C 94 % 0 lf 1033,3 hPa 0,0 l/m 2 min 0 min 107 W/m 8,4 km/h (2 Bft) 93,48 %
30.11.2016 09:28 -4,8 C -3,3 C -6,1 C 94 % 1 lf 1033,3 hPa 0,0 l/m 2 min 0 min 106 W/m 6,3 km/h (2 Bft) 100,00 %
30.11.2016 09:30 -4,8 C -3,3 C -6,1 C 94 % 1 lf 1033,3 hPa 0,0 l/m 2 min 0 min 115 W/m 6,3 km/h (2 Bft) 100,00 %
30.11.2016 09:32 -4,8 C -3,3 C -6,1 C 94 % 1 lf 1033,3 hPa 0,0 l/m 2 min 0 min 120 W/m 6,3 km/h (2 Bft) 100,00 %
30.11.2016 09:34 -4,7 C -3,3 C -5,6 C 94 % 1 lf 1033,3 hPa 0,0 l/m 2 min 0 min 117 W/m 6,3 km/h (2 Bft) 97,87 %
30.11.2016 09:35 -4,7 C -3,3 C -5,6 C 94 % 1 lf 1033,3 hPa 0,0 l/m 1 min 0 min 119 W/m 4,2 km/h (1 Bft) 100,00 %
30.11.2016 09:36 -4,7 C -2,8 C -5,6 C 94 % 1 lf 1033,3 hPa 0,0 l/m 1 min 0 min 125 W/m 8,4 km/h (2 Bft) 100,00 %
30.11.2016 09:37 -4,7 C -2,8 C -5,6 C 94 % 1 lf 1033,3 hPa 0,0 l/m 1 min 0 min 123 W/m 6,3 km/h (2 Bft) 100,00 %
30.11.2016 09:40 -4,6 C -2,2 C -5,0 C 94 % 1 lf 1033,2 hPa 0,0 l/m 2 min 0 min 123 W/m 10,5 km/h (2 Bft) 99,29 %
30.11.2016 09:42 -4,6 C -2,2 C -5,0 C 94 % 1 lf 1033,2 hPa 0,0 l/m 2 min 0 min 132 W/m 8,4 km/h (2 Bft) 95,65 %
30.11.2016 09:44 -4,5 C -2,2 C -5,0 C 94 % 1 lf 1033,2 hPa 0,0 l/m 2 min 0 min 133 W/m 12,6 km/h (3 Bft) 97,87 %
30.11.2016 09:46 -4,4 C -1,7 C -4,4 C 94 % 1 lf 1033,1 hPa 0,0 l/m 2 min 0 min 140 W/m 10,5 km/h (2 Bft) 97,87 %
30.11.2016 09:48 -4,3 C -1,7 C -4,4 C 94 % 1 lf 1033,1 hPa 0,0 l/m 2 min 0 min 150 W/m 8,4 km/h (2 Bft) 95,74 %
30.11.2016 09:50 -4,2 C -1,7 C -4,4 C 94 % 1 lf 1033,1 hPa 0,0 l/m 2 min 0 min 154 W/m 8,4 km/h (2 Bft) 97,87 %
30.11.2016 09:52 -4,1 C -1,1 C -4,4 C 94 % 1 lf 1033,1 hPa 0,0 l/m 2 min 0 min 161 W/m 10,5 km/h (2 Bft) 95,74 %
30.11.2016 09:54 -4,0 C -1,1 C -4,4 C 94 % 1 lf 1033,3 hPa 0,0 l/m 2 min 0 min 163 W/m 10,5 km/h (2 Bft) 95,65 %
30.11.2016 09:56 -3,9 C -1,1 C -4,4 C 95 % 1 lf 1033,3 hPa 0,0 l/m 2 min 0 min 166 W/m 8,4 km/h (2 Bft) 97,87 %
30.11.2016 09:58 -3,8 C -1,1 C -4,4 C 95 % 1 lf 1033,3 hPa 0,0 l/m 2 min 0 min 154 W/m 10,5 km/h (2 Bft) 100,00 %
30.11.2016 10:00 -3,7 C -0,6 C -4,4 C 95 % 1 lf 1033,3 hPa 0,0 l/m 2 min 0 min 155 W/m 10,5 km/h (2 Bft) 95,74 %
30.11.2016 10:02 -3,6 C -0,6 C -3,9 C 95 % 1 lf 1033,2 hPa 0,0 l/m 2 min 0 min 166 W/m 8,4 km/h (2 Bft) 97,87 %
30.11.2016 10:04 -3,4 C -0,6 C -3,9 C 95 % 1 lf 1033,3 hPa 0,0 l/m 2 min 0 min 167 W/m 8,4 km/h (2 Bft) 97,87 %
30.11.2016 10:06 -3,4 C -0,6 C -3,9 C 95 % 1 lf 1033,4 hPa 0,0 l/m 2 min 0 min 173 W/m 8,4 km/h (2 Bft) 97,83 %
30.11.2016 10:08 -3,3 C 0,0 C -3,9 C 95 % 1 lf 1033,3 hPa 0,0 l/m 2 min 0 min 168 W/m 8,4 km/h (2 Bft) 97,87 %
30.11.2016 10:10 -3,2 C 0,0 C -3,9 C 95 % 1 lf 1033,3 hPa 0,0 l/m 2 min 0 min 171 W/m 10,5 km/h (2 Bft) 95,74 %
30.11.2016 10:12 -3,1 C 0,0 C -3,9 C 95 % 1 lf 1033,2 hPa 0,0 l/m 2 min 0 min 166 W/m 8,4 km/h (2 Bft) 95,74 %
30.11.2016 10:14 -3,1 C 0,0 C -3,9 C 95 % 1 lf 1033,1 hPa 0,0 l/m 2 min 0 min 170 W/m 10,5 km/h (2 Bft) 97,87 %
30.11.2016 10:16 -2,9 C 0,0 C -3,9 C 95 % 1 lf 1033,3 hPa 0,0 l/m 2 min 0 min 189 W/m 10,5 km/h (2 Bft) 95,65 %
30.11.2016 10:18 -2,9 C 0,0 C -3,9 C 95 % 1 lf 1033,2 hPa 0,0 l/m 2 min 0 min 198 W/m 8,4 km/h (2 Bft) 97,87 %
30.11.2016 10:20 -2,8 C 0,0 C -3,9 C 95 % 1 lf 1033,2 hPa 0,0 l/m 2 min 0 min 214 W/m 10,5 km/h (2 Bft) 91,49 %
30.11.2016 10:22 -2,7 C 0,6 C -3,9 C 95 % 1 lf 1033,1 hPa 0,0 l/m 2 min 0 min 228 W/m 8,4 km/h (2 Bft) 95,74 %
30.11.2016 10:24 -2,6 C 0,6 C -3,3 C 95 % 1 lf 1033,2 hPa 0,0 l/m 2 min 0 min 184 W/m 6,3 km/h (2 Bft) 97,87 %
30.11.2016 10:26 -2,5 C 0,6 C -3,3 C 95 % 1 lf 1033,1 hPa 0,0 l/m 2 min 0 min 208 W/m 10,5 km/h (2 Bft) 91,49 %
30.11.2016 10:28 -2,4 C 1,1 C -3,3 C 95 % 1 lf 1033,2 hPa 0,0 l/m 2 min 0 min 231 W/m 10,5 km/h (2 Bft) 97,83 %
30.11.2016 10:30 -2,3 C 1,7 C -3,3 C 95 % 1 lf 1033,1 hPa 0,0 l/m 2 min 0 min 228 W/m 8,4 km/h (2 Bft) 93,62 %
30.11.2016 10:32 -2,2 C 1,7 C -2,8 C 95 % 1 lf 1033,3 hPa 0,0 l/m 2 min 0 min 210 W/m 12,6 km/h (3 Bft) 91,49 %
30.11.2016 10:34 -2,1 C 2,8 C -2,8 C 95 % 1 lf 1033,2 hPa 0,0 l/m 2 min 0 min 214 W/m 10,5 km/h (2 Bft) 93,62 %
30.11.2016 10:36 -2,0 C 3,3 C -2,2 C 94 % 1 lf 1033,3 hPa 0,0 l/m 2 min 0 min 233 W/m 14,6 km/h (3 Bft) 95,74 %
30.11.2016 10:38 -1,9 C 3,9 C -2,2 C 94 % 0 lf 1033,3 hPa 0,0 l/m 2 min 0 min 251 W/m 14,6 km/h (3 Bft) 95,74 %
30.11.2016 10:40 -1,8 C 4,4 C -2,2 C 94 % 0 lf 1033,4 hPa 0,0 l/m 2 min 0 min 205 W/m 14,6 km/h (3 Bft) 95,65 %
30.11.2016 10:42 -1,7 C 4,4 C -1,7 C 94 % 0 lf 1033,4 hPa 0,0 l/m 2 min 0 min 205 W/m 10,5 km/h (2 Bft) 95,74 %
30.11.2016 10:44 -1,6 C 4,4 C -1,7 C 94 % 0 lf 1033,3 hPa 0,0 l/m 2 min 0 min 207 W/m 8,4 km/h (2 Bft) 95,74 %
30.11.2016 10:46 -1,5 C 4,4 C -2,2 C 94 % 0 lf 1033,3 hPa 0,0 l/m 2 min 0 min 199 W/m 12,6 km/h (3 Bft) 95,74 %
30.11.2016 10:48 -1,4 C 3,9 C -1,7 C 94 % 0 lf 1033,2 hPa 0,2 l/m 2 min 0 min 191 W/m 10,5 km/h (2 Bft) 91,49 %
30.11.2016 10:50 -1,3 C 4,4 C -1,7 C 93 % 0 lf 1033,1 hPa 0,0 l/m 2 min 0 min 191 W/m 14,6 km/h (3 Bft) 91,49 %
30.11.2016 10:52 -1,2 C 4,4 C -1,7 C 93 % 0 lf 1033,1 hPa 0,0 l/m 2 min 0 min 197 W/m 14,6 km/h (3 Bft) 93,48 %
30.11.2016 10:54 -1,1 C 5,6 C -1,7 C 93 % 0 lf 1033,1 hPa 0,0 l/m 2 min 0 min 216 W/m 16,7 km/h (3 Bft) 93,62 %
30.11.2016 10:56 -0,9 C 5,6 C -1,7 C 92 % 0 lf 1033,0 hPa 0,0 l/m 2 min 0 min 218 W/m 18,8 km/h (3 Bft) 91,49 %
30.11.2016 10:58 -0,9 C 5,6 C -1,7 C 91 % 0 lf 1033,0 hPa 0,0 l/m 2 min 0 min 225 W/m 12,6 km/h (3 Bft) 95,74 %
30.11.2016 11:00 -0,8 C 6,7 C -1,7 C 91 % 0 lf 1033,0 hPa 0,0 l/m 2 min 0 min 220 W/m 14,6 km/h (3 Bft) 95,45 %
30.11.2016 11:02 -0,7 C 6,7 C -1,1 C 90 % 0 lf 1033,0 hPa 0,0 l/m 2 min 0 min 239 W/m 14,6 km/h (3 Bft) 91,84 %
30.11.2016 11:04 -0,6 C 7,2 C -1,1 C 89 % 0 lf 1033,0 hPa 0,0 l/m 2 min 0 min 226 W/m 12,6 km/h (3 Bft) 95,74 %
30.11.2016 11:06 -0,4 C 7,2 C -1,1 C 88 % 0 lf 1033,0 hPa 0,0 l/m 2 min 0 min 222 W/m 16,7 km/h (3 Bft) 93,62 %
30.11.2016 11:08 -0,3 C 7,2 C -1,1 C 87 % 0 lf 1033,0 hPa 0,0 l/m 2 min 0 min 242 W/m 18,8 km/h (3 Bft) 97,87 %
30.11.2016 11:10 -0,2 C 7,2 C -1,1 C 86 % 0 lf 1033,0 hPa 0,0 l/m 2 min 0 min 264 W/m 16,7 km/h (3 Bft) 100,00 %
30.11.2016 11:12 -0,1 C 7,2 C -1,1 C 86 % 0 lf 1033,0 hPa 0,0 l/m 2 min 0 min 264 W/m 16,7 km/h (3 Bft) 100,00 %
30.11.2016 11:14 0,0 C 8,9 C -0,6 C 84 % 0 lf 1032,9 hPa 0,0 l/m 2 min 0 min 267 W/m 12,6 km/h (3 Bft) 93,62 %
30.11.2016 11:16 0,1 C 8,3 C -0,6 C 84 % 0 lf 1032,8 hPa 0,0 l/m 2 min 0 min 301 W/m 14,6 km/h (3 Bft) 95,65 %
30.11.2016 11:18 0,2 C 8,9 C -0,6 C 83 % 0 lf 1032,8 hPa 0,0 l/m 2 min 0 min 296 W/m 12,6 km/h (3 Bft) 100,00 %
30.11.2016 11:20 0,3 C 8,9 C -0,6 C 83 % 0 lf 1032,7 hPa 0,0 l/m 2 min 0 min 256 W/m 12,6 km/h (3 Bft) 100,00 %
30.11.2016 11:22 0,4 C 9,4 C -0,6 C 83 % 0 lf 1032,8 hPa 0,0 l/m 2 min 0 min 256 W/m 18,8 km/h (3 Bft) 100,00 %
30.11.2016 11:24 0,5 C 8,9 C -0,6 C 82 % 0 lf 1032,7 hPa 0,0 l/m 2 min 0 min 253 W/m 16,7 km/h (3 Bft) 93,62 %
30.11.2016 11:26 0,5 C 8,3 C -0,6 C 81 % 0 lf 1032,8 hPa 0,0 l/m 2 min 0 min 260 W/m 18,8 km/h (3 Bft) 95,65 %
30.11.2016 11:28 0,6 C 7,8 C -0,6 C 80 % 0 lf 1032,8 hPa 0,0 l/m 2 min 0 min 259 W/m 16,7 km/h (3 Bft) 100,00 %
30.11.2016 11:30 0,7 C 7,8 C 0,0 C 80 % 0 lf 1032,8 hPa 0,0 l/m 2 min 0 min 263 W/m 16,7 km/h (3 Bft) 95,74 %
30.11.2016 11:32 0,8 C 7,8 C 0,0 C 79 % 0 lf 1032,8 hPa 0,0 l/m 2 min 0 min 260 W/m 18,8 km/h (3 Bft) 97,87 %
30.11.2016 11:34 0,9 C 8,3 C 0,0 C 79 % 0 lf 1032,8 hPa 0,0 l/m 2 min 0 min 254 W/m 18,8 km/h (3 Bft) 97,87 %
30.11.2016 11:36 0,9 C 7,8 C 0,0 C 79 % 0 lf 1032,8 hPa 0,0 l/m 2 min 0 min 263 W/m 14,6 km/h (3 Bft) 97,87 %
30.11.2016 11:38 1,0 C 7,8 C 0,0 C 79 % 0 lf 1032,8 hPa 0,0 l/m 2 min 0 min 259 W/m 14,6 km/h (3 Bft) 100,00 %
30.11.2016 11:40 1,1 C 7,8 C 0,0 C 78 % 0 lf 1032,8 hPa 0,0 l/m 2 min 0 min 253 W/m 16,7 km/h (3 Bft) 95,65 %
30.11.2016 11:42 1,2 C 7,8 C 0,0 C 78 % 0 lf 1032,7 hPa 0,0 l/m 2 min 0 min 248 W/m 12,6 km/h (3 Bft) 91,49 %
30.11.2016 11:44 1,2 C 7,8 C 0,0 C 78 % 0 lf 1032,7 hPa 0,0 l/m 2 min 0 min 243 W/m 12,6 km/h (3 Bft) 97,87 %
30.11.2016 11:46 1,3 C 6,7 C 0,0 C 78 % 0 lf 1032,7 hPa 0,0 l/m 2 min 0 min 244 W/m 12,6 km/h (3 Bft) 100,00 %
30.11.2016 11:48 1,3 C 6,7 C 0,6 C 77 % 0 lf 1032,6 hPa 0,0 l/m 2 min 0 min 255 W/m 14,6 km/h (3 Bft) 100,00 %
30.11.2016 11:50 1,4 C 6,1 C 0,6 C 77 % 0 lf 1032,5 hPa 0,0 l/m 2 min 0 min 286 W/m 16,7 km/h (3 Bft) 100,00 %
30.11.2016 11:52 1,4 C 7,2 C 0,6 C 76 % 0 lf 1032,5 hPa 0,0 l/m 2 min 0 min 289 W/m 23,0 km/h (4 Bft) 97,83 %
30.11.2016 11:54 1,5 C 6,7 C 0,6 C 76 % 0 lf 1032,6 hPa 0,0 l/m 2 min 0 min 295 W/m 20,9 km/h (4 Bft) 96,55 %
30.11.2016 11:56 1,6 C 6,7 C 0,6 C 76 % 0 lf 1032,6 hPa 0,0 l/m 2 min 0 min 291 W/m 20,9 km/h (4 Bft) 97,87 %
30.11.2016 11:58 1,6 C 6,7 C 0,6 C 75 % 0 lf 1032,6 hPa 0,0 l/m 2 min 0 min 294 W/m 23,0 km/h (4 Bft) 91,49 %
30.11.2016 12:00 1,7 C 6,1 C 0,6 C 74 % 0 lf 1032,5 hPa 0,0 l/m 2 min 0 min 290 W/m 20,9 km/h (4 Bft) 97,87 %
30.11.2016 12:02 1,7 C 7,2 C 0,6 C 74 % 0 lf 1032,5 hPa 0,0 l/m 2 min 0 min 286 W/m 18,8 km/h (3 Bft) 97,56 %
30.11.2016 12:06 1,8 C 6,1 C 0,6 C 74 % 0 lf 1032,3 hPa 0,0 l/m 2 min 0 min 239 W/m 20,9 km/h (4 Bft) 95,88 %
30.11.2016 12:08 1,8 C 5,6 C 0,6 C 74 % 0 lf 1032,2 hPa 0,0 l/m 2 min 0 min 159 W/m 23,0 km/h (4 Bft) 97,87 %
30.11.2016 12:10 1,8 C 4,4 C 0,6 C 73 % 0 lf 1032,3 hPa 0,0 l/m 2 min 0 min 160 W/m 14,6 km/h (3 Bft) 95,74 %
30.11.2016 12:12 1,8 C 4,4 C 0,6 C 73 % 0 lf 1032,3 hPa 0,0 l/m 2 min 0 min 178 W/m 18,8 km/h (3 Bft) 95,65 %
30.11.2016 12:14 1,8 C 5,0 C 0,6 C 73 % 0 lf 1032,3 hPa 0,0 l/m 2 min 0 min 230 W/m 14,6 km/h (3 Bft) 97,87 %
30.11.2016 12:16 1,9 C 5,0 C 0,6 C 73 % 0 lf 1032,2 hPa 0,0 l/m 2 min 0 min 272 W/m 18,8 km/h (3 Bft) 95,74 %
30.11.2016 12:18 1,9 C 5,6 C 0,6 C 73 % 0 lf 1032,2 hPa 0,0 l/m 2 min 0 min 269 W/m 18,8 km/h (3 Bft) 93,62 %
30.11.2016 12:20 1,9 C 6,1 C 0,6 C 73 % 0 lf 1032,2 hPa 0,0 l/m 2 min 0 min 277 W/m 18,8 km/h (3 Bft) 95,74 %
30.11.2016 12:22 1,9 C 5,6 C 0,6 C 73 % 0 lf 1032,3 hPa 0,0 l/m 2 min 0 min 278 W/m 18,8 km/h (3 Bft) 95,74 %
30.11.2016 12:24 2,0 C 6,1 C 1,1 C 73 % 0 lf 1032,2 hPa 0,0 l/m 2 min 0 min 292 W/m 16,7 km/h (3 Bft) 95,65 %
30.11.2016 12:26 2,1 C 6,1 C 1,1 C 73 % 0 lf 1032,2 hPa 0,0 l/m 2 min 0 min 296 W/m 18,8 km/h (3 Bft) 91,49 %
30.11.2016 12:28 2,1 C 7,2 C 1,1 C 73 % 0 lf 1032,3 hPa 0,0 l/m 2 min 0 min 294 W/m 14,6 km/h (3 Bft) 95,74 %
30.11.2016 12:30 2,2 C 6,7 C 1,1 C 73 % 0 lf 1032,4 hPa 0,0 l/m 2 min 0 min 290 W/m 14,6 km/h (3 Bft) 95,74 %
30.11.2016 12:32 2,2 C 7,2 C 1,1 C 72 % 0 lf 1032,4 hPa 0,0 l/m 2 min 0 min 281 W/m 16,7 km/h (3 Bft) 95,74 %
30.11.2016 12:34 2,2 C 7,2 C 1,1 C 72 % 0 lf 1032,5 hPa 0,0 l/m 2 min 0 min 258 W/m 14,6 km/h (3 Bft) 93,62 %
30.11.2016 12:36 2,3 C 7,2 C 1,1 C 72 % 0 lf 1032,5 hPa 0,0 l/m 2 min 0 min 231 W/m 12,6 km/h (3 Bft) 95,65 %
30.11.2016 12:38 2,3 C 7,2 C 1,1 C 72 % 0 lf 1032,6 hPa 0,0 l/m 2 min 0 min 226 W/m 12,6 km/h (3 Bft) 89,36 %
30.11.2016 12:40 2,4 C 7,2 C 1,1 C 72 % 0 lf 1032,6 hPa 0,0 l/m 2 min 0 min 250 W/m 18,8 km/h (3 Bft) 93,62 %
30.11.2016 12:42 2,4 C 7,8 C 1,1 C 71 % 0 lf 1032,6 hPa 0,0 l/m 2 min 0 min 263 W/m 14,6 km/h (3 Bft) 91,49 %
30.11.2016 12:44 2,4 C 7,8 C 1,1 C 71 % 0 lf 1032,6 hPa 0,0 l/m 2 min 0 min 270 W/m 18,8 km/h (3 Bft) 95,74 %
30.11.2016 12:46 2,5 C 7,2 C 1,1 C 71 % 0 lf 1032,6 hPa 0,0 l/m 2 min 0 min 262 W/m 20,9 km/h (4 Bft) 91,49 %
30.11.2016 12:48 2,6 C 7,2 C 1,1 C 70 % 0 lf 1032,6 hPa 0,0 l/m 2 min 0 min 264 W/m 16,7 km/h (3 Bft) 89,13 %
30.11.2016 12:50 2,6 C 7,8 C 1,1 C 70 % 0 lf 1032,6 hPa 0,0 l/m 2 min 0 min 272 W/m 14,6 km/h (3 Bft) 85,11 %
30.11.2016 12:52 2,7 C 7,8 C 1,1 C 70 % 0 lf 1032,5 hPa 0,0 l/m 2 min 0 min 276 W/m 16,7 km/h (3 Bft) 89,36 %
30.11.2016 12:54 2,7 C 7,2 C 1,1 C 70 % 0 lf 1032,5 hPa 0,0 l/m 2 min 0 min 278 W/m 16,7 km/h (3 Bft) 91,49 %
30.11.2016 12:56 2,7 C 6,7 C 1,7 C 70 % 0 lf 1032,5 hPa 0,0 l/m 2 min 0 min 273 W/m 16,7 km/h (3 Bft) 91,49 %
30.11.2016 12:58 2,7 C 6,1 C 1,7 C 69 % 0 lf 1032,4 hPa 0,0 l/m 2 min 0 min 275 W/m 20,9 km/h (4 Bft) 89,13 %
30.11.2016 13:00 2,8 C 6,7 C 1,7 C 70 % 0 lf 1032,4 hPa 0,0 l/m 2 min 0 min 279 W/m 12,6 km/h (3 Bft) 90,00 %
30.11.2016 13:02 2,8 C 6,7 C 1,7 C 70 % 0 lf 1032,4 hPa 0,0 l/m 2 min 0 min 268 W/m 18,8 km/h (3 Bft) 89,36 %
30.11.2016 13:04 2,8 C 6,7 C 1,7 C 69 % 0 lf 1032,4 hPa 0,0 l/m 2 min 0 min 275 W/m 16,7 km/h (3 Bft) 91,49 %
30.11.2016 13:06 2,9 C 7,2 C 1,7 C 69 % 0 lf 1032,4 hPa 0,0 l/m 2 min 0 min 276 W/m 16,7 km/h (3 Bft) 89,36 %
30.11.2016 13:08 2,9 C 7,2 C 1,7 C 69 % 0 lf 1032,4 hPa 0,0 l/m 2 min 0 min 276 W/m 18,8 km/h (3 Bft) 89,36 %
30.11.2016 13:10 3,0 C 7,2 C 1,7 C 69 % 0 lf 1032,3 hPa 0,0 l/m 2 min 0 min 268 W/m 16,7 km/h (3 Bft) 91,49 %
30.11.2016 13:12 3,0 C 7,8 C 1,7 C 69 % 0 lf 1032,3 hPa 0,0 l/m 2 min 0 min 269 W/m 14,6 km/h (3 Bft) 95,65 %
30.11.2016 13:14 3,1 C 7,8 C 1,7 C 69 % 0 lf 1032,3 hPa 0,0 l/m 2 min 0 min 259 W/m 14,6 km/h (3 Bft) 89,36 %
30.11.2016 13:16 3,1 C 7,8 C 1,7 C 69 % 0 lf 1032,2 hPa 0,0 l/m 2 min 0 min 256 W/m 14,6 km/h (3 Bft) 95,74 %
30.11.2016 13:18 3,2 C 7,8 C 1,7 C 69 % 0 lf 1032,2 hPa 0,0 l/m 2 min 0 min 255 W/m 14,6 km/h (3 Bft) 95,74 %
30.11.2016 13:20 3,2 C 7,8 C 1,7 C 69 % 0 lf 1032,2 hPa 0,0 l/m 2 min 0 min 255 W/m 16,7 km/h (3 Bft) 95,74 %
30.11.2016 13:22 3,2 C 8,3 C 2,2 C 68 % 0 lf 1032,2 hPa 0,0 l/m 2 min 0 min 269 W/m 14,6 km/h (3 Bft) 93,48 %
30.11.2016 13:24 3,3 C 8,3 C 2,2 C 68 % 0 lf 1032,2 hPa 0,0 l/m 2 min 0 min 273 W/m 16,7 km/h (3 Bft) 87,23 %
30.11.2016 13:26 3,3 C 8,3 C 2,2 C 68 % 0 lf 1032,1 hPa 0,0 l/m 2 min 0 min 280 W/m 12,6 km/h (3 Bft) 97,87 %
30.11.2016 13:28 3,4 C 9,4 C 2,2 C 68 % 0 lf 1032,0 hPa 0,0 l/m 2 min 0 min 290 W/m 14,6 km/h (3 Bft) 95,74 %
30.11.2016 13:30 3,4 C 9,4 C 2,8 C 68 % 0 lf 1032,0 hPa 0,0 l/m 2 min 0 min 310 W/m 8,4 km/h (2 Bft) 93,62 %
30.11.2016 13:32 3,5 C 8,3 C 2,8 C 68 % 0 lf 1031,9 hPa 0,0 l/m 2 min 0 min 324 W/m 16,7 km/h (3 Bft) 95,74 %
30.11.2016 13:34 3,6 C 9,4 C 2,8 C 68 % 0 lf 1031,8 hPa 0,0 l/m 2 min 0 min 300 W/m 14,6 km/h (3 Bft) 95,65 %
30.11.2016 13:36 3,6 C 10,0 C 2,8 C 68 % 0 lf 1031,8 hPa 0,0 l/m 2 min 0 min 296 W/m 16,7 km/h (3 Bft) 95,74 %
30.11.2016 13:38 3,7 C 10,6 C 2,8 C 67 % 0 lf 1031,8 hPa 0,0 l/m 2 min 0 min 281 W/m 18,8 km/h (3 Bft) 97,87 %
30.11.2016 13:40 3,7 C 10,6 C 2,8 C 67 % 0 lf 1031,8 hPa 0,0 l/m 2 min 0 min 261 W/m 18,8 km/h (3 Bft) 95,74 %
30.11.2016 13:42 3,7 C 9,4 C 2,8 C 67 % 0 lf 1031,8 hPa 0,0 l/m 2 min 0 min 194 W/m 18,8 km/h (3 Bft) 97,87 %
30.11.2016 13:44 3,8 C 8,3 C 2,2 C 67 % 0 lf 1031,8 hPa 0,0 l/m 2 min 0 min 141 W/m 12,6 km/h (3 Bft) 100,00 %
30.11.2016 13:46 3,8 C 7,8 C 2,2 C 67 % 0 lf 1031,8 hPa 0,0 l/m 2 min 0 min 138 W/m 14,6 km/h (3 Bft) 100,00 %
30.11.2016 13:48 3,8 C 8,3 C 2,2 C 67 % 0 lf 1031,8 hPa 0,0 l/m 2 min 0 min 177 W/m 23,0 km/h (4 Bft) 100,00 %
30.11.2016 13:50 3,7 C 8,3 C 2,2 C 67 % 0 lf 1031,8 hPa 0,0 l/m 2 min 0 min 177 W/m 18,8 km/h (3 Bft) 97,87 %
30.11.2016 13:52 3,7 C 7,8 C 1,7 C 67 % 0 lf 1031,8 hPa 0,0 l/m 2 min 0 min 128 W/m 18,8 km/h (3 Bft) 97,87 %
30.11.2016 13:54 3,7 C 7,8 C 1,7 C 67 % 0 lf 1031,8 hPa 0,0 l/m 2 min 0 min 137 W/m 12,6 km/h (3 Bft) 100,00 %
30.11.2016 13:56 3,7 C 8,3 C 1,7 C 67 % 0 lf 1031,8 hPa 0,0 l/m 2 min 0 min 148 W/m 14,6 km/h (3 Bft) 100,00 %
30.11.2016 13:58 3,7 C 8,3 C 1,7 C 68 % 0 lf 1031,7 hPa 0,0 l/m 2 min 0 min 142 W/m 14,6 km/h (3 Bft) 97,83 %
30.11.2016 14:00 3,7 C 6,7 C 1,7 C 68 % 0 lf 1031,6 hPa 0,0 l/m 0 min 0 min 99 W/m 14,6 km/h (3 Bft) 97,73 %
30.11.2016 14:02 3,7 C 6,7 C 1,7 C 68 % 0 lf 1031,5 hPa 0,0 l/m 2 min 0 min 137 W/m 10,5 km/h (2 Bft) 100,00 %
30.11.2016 14:04 3,7 C 7,2 C 1,7 C 68 % 0 lf 1031,4 hPa 0,0 l/m 2 min 0 min 135 W/m 12,6 km/h (3 Bft) 100,00 %
30.11.2016 14:06 3,6 C 7,2 C 1,7 C 68 % 0 lf 1031,5 hPa 0,0 l/m 0 min 0 min 100 W/m 12,6 km/h (3 Bft) 100,00 %
30.11.2016 14:08 3,6 C 7,2 C 1,7 C 69 % 0 lf 1031,5 hPa 0,0 l/m 0 min 0 min 93 W/m 10,5 km/h (2 Bft) 100,00 %
30.11.2016 14:10 3,6 C 6,1 C 1,7 C 69 % 0 lf 1031,5 hPa 0,0 l/m 0 min 0 min 88 W/m 16,7 km/h (3 Bft) 97,83 %
30.11.2016 14:12 3,6 C 5,6 C 1,7 C 69 % 0 lf 1031,5 hPa 0,0 l/m 0 min 0 min 81 W/m 14,6 km/h (3 Bft) 100,00 %
30.11.2016 14:14 3,6 C 5,6 C 1,7 C 69 % 0 lf 1031,6 hPa 0,0 l/m 0 min 0 min 83 W/m 8,4 km/h (2 Bft) 97,87 %
30.11.2016 14:16 3,6 C 5,6 C 1,1 C 69 % 0 lf 1031,6 hPa 0,0 l/m 0 min 0 min 92 W/m 8,4 km/h (2 Bft) 100,00 %
30.11.2016 14:18 3,6 C 5,0 C 1,1 C 69 % 0 lf 1031,5 hPa 0,0 l/m 0 min 0 min 78 W/m 8,4 km/h (2 Bft) 93,62 %
30.11.2016 14:20 3,5 C 5,0 C 1,1 C 69 % 0 lf 1031,5 hPa 0,0 l/m 0 min 0 min 91 W/m 12,6 km/h (3 Bft) 97,87 %
30.11.2016 14:22 3,5 C 5,0 C 1,1 C 69 % 0 lf 1031,4 hPa 0,0 l/m 0 min 0 min 91 W/m 10,5 km/h (2 Bft) 100,00 %
30.11.2016 14:24 3,5 C 5,6 C 1,7 C 69 % 0 lf 1031,3 hPa 0,0 l/m 2 min 0 min 119 W/m 8,4 km/h (2 Bft) 100,00 %
30.11.2016 14:26 3,5 C 6,1 C 1,7 C 70 % 0 lf 1031,3 hPa 0,0 l/m 2 min 0 min 182 W/m 12,6 km/h (3 Bft) 100,00 %
30.11.2016 14:28 3,5 C 6,1 C 1,7 C 70 % 0 lf 1031,2 hPa 0,0 l/m 2 min 0 min 175 W/m 10,5 km/h (2 Bft) 100,00 %
30.11.2016 14:30 3,5 C 6,1 C 1,7 C 70 % 0 lf 1031,2 hPa 0,0 l/m 2 min 0 min 160 W/m 8,4 km/h (2 Bft) 93,62 %
30.11.2016 14:32 3,5 C 6,1 C 2,2 C 70 % 0 lf 1031,1 hPa 0,0 l/m 2 min 0 min 164 W/m 8,4 km/h (2 Bft) 97,83 %
30.11.2016 14:34 3,5 C 5,6 C 2,2 C 70 % 0 lf 1031,0 hPa 0,0 l/m 2 min 0 min 169 W/m 10,5 km/h (2 Bft) 97,87 %
30.11.2016 14:36 3,5 C 5,0 C 2,2 C 70 % 0 lf 1031,0 hPa 0,0 l/m 2 min 0 min 166 W/m 12,6 km/h (3 Bft) 100,00 %
30.11.2016 14:38 3,5 C 5,0 C 2,2 C 70 % 0 lf 1031,0 hPa 0,0 l/m 2 min 0 min 159 W/m 10,5 km/h (2 Bft) 97,87 %
30.11.2016 14:40 3,5 C 5,0 C 2,2 C 70 % 0 lf 1031,0 hPa 0,0 l/m 2 min 0 min 162 W/m 12,6 km/h (3 Bft) 95,74 %
30.11.2016 14:42 3,6 C 5,0 C 2,2 C 70 % 0 lf 1030,9 hPa 0,0 l/m 2 min 0 min 156 W/m 10,5 km/h (2 Bft) 95,74 %
30.11.2016 14:44 3,6 C 5,0 C 2,2 C 70 % 0 lf 1031,0 hPa 0,0 l/m 2 min 0 min 160 W/m 12,6 km/h (3 Bft) 100,00 %
30.11.2016 14:46 3,6 C 5,0 C 2,2 C 70 % 0 lf 1030,9 hPa 0,0 l/m 2 min 0 min 158 W/m 12,6 km/h (3 Bft) 100,00 %
30.11.2016 14:48 3,6 C 5,0 C 2,2 C 70 % 0 lf 1031,0 hPa 0,0 l/m 2 min 0 min 158 W/m 12,6 km/h (3 Bft) 95,74 %
30.11.2016 14:50 3,6 C 5,0 C 2,2 C 70 % 0 lf 1031,0 hPa 0,0 l/m 2 min 0 min 154 W/m 12,6 km/h (3 Bft) 100,00 %
30.11.2016 14:52 3,6 C 5,6 C 2,2 C 70 % 0 lf 1031,0 hPa 0,0 l/m 2 min 0 min 151 W/m 10,5 km/h (2 Bft) 97,87 %
30.11.2016 14:54 3,6 C 5,6 C 2,2 C 70 % 0 lf 1031,1 hPa 0,0 l/m 2 min 0 min 147 W/m 10,5 km/h (2 Bft) 97,87 %
30.11.2016 14:56 3,6 C 5,6 C 2,2 C 70 % 0 lf 1031,0 hPa 0,0 l/m 2 min 0 min 140 W/m 10,5 km/h (2 Bft) 95,65 %
30.11.2016 14:58 3,6 C 5,6 C 2,2 C 70 % 0 lf 1031,0 hPa 0,0 l/m 2 min 0 min 119 W/m 12,6 km/h (3 Bft) 95,74 %
30.11.2016 15:00 3,6 C 5,0 C 1,7 C 70 % 0 lf 1031,0 hPa 0,0 l/m 2 min 0 min 131 W/m 12,6 km/h (3 Bft) 95,74 %
30.11.2016 15:02 3,7 C 5,0 C 1,7 C 70 % 0 lf 1031,0 hPa 0,0 l/m 2 min 0 min 165 W/m 14,6 km/h (3 Bft) 90,91 %
30.11.2016 15:04 3,6 C 5,0 C 1,7 C 70 % 0 lf 1030,8 hPa 0,0 l/m 2 min 0 min 155 W/m 16,7 km/h (3 Bft) 89,47 %
30.11.2016 15:06 3,6 C 5,0 C 1,7 C 70 % 0 lf 1030,8 hPa 0,0 l/m 2 min 0 min 158 W/m 16,7 km/h (3 Bft) 96,30 %
30.11.2016 15:08 3,6 C 5,0 C 1,7 C 70 % 0 lf 1030,9 hPa 0,0 l/m 2 min 0 min 200 W/m 16,7 km/h (3 Bft) 89,36 %
30.11.2016 15:10 3,6 C 5,0 C 1,7 C 70 % 0 lf 1030,8 hPa 0,0 l/m 2 min 0 min 104 W/m 10,5 km/h (2 Bft) 91,30 %
30.11.2016 15:12 3,6 C 5,0 C 1,7 C 70 % 0 lf 1030,8 hPa 0,0 l/m 2 min 0 min 93 W/m 12,6 km/h (3 Bft) 93,62 %
30.11.2016 15:14 3,6 C 4,4 C 1,7 C 70 % 0 lf 1030,7 hPa 0,0 l/m 2 min 0 min 100 W/m 12,6 km/h (3 Bft) 95,74 %
30.11.2016 15:16 3,6 C 4,4 C 1,7 C 70 % 0 lf 1030,8 hPa 0,0 l/m 2 min 0 min 101 W/m 14,6 km/h (3 Bft) 95,74 %
30.11.2016 15:18 3,5 C 4,4 C 1,7 C 70 % 0 lf 1030,7 hPa 0,0 l/m 2 min 0 min 135 W/m 14,6 km/h (3 Bft) 95,74 %
30.11.2016 15:20 3,5 C 4,4 C 1,7 C 70 % 0 lf 1030,7 hPa 0,0 l/m 2 min 0 min 119 W/m 14,6 km/h (3 Bft) 93,62 %
30.11.2016 15:22 3,5 C 3,9 C 1,7 C 70 % 0 lf 1030,6 hPa 0,0 l/m 2 min 0 min 136 W/m 14,6 km/h (3 Bft) 95,65 %
30.11.2016 15:24 3,4 C 3,9 C 1,7 C 70 % 0 lf 1030,7 hPa 0,0 l/m 2 min 0 min 148 W/m 12,6 km/h (3 Bft) 95,74 %
30.11.2016 15:26 3,4 C 3,9 C 1,7 C 70 % 0 lf 1030,7 hPa 0,0 l/m 2 min 0 min 163 W/m 14,6 km/h (3 Bft) 89,36 %
30.11.2016 15:28 3,4 C 3,9 C 1,7 C 70 % 0 lf 1030,7 hPa 0,0 l/m 2 min 0 min 210 W/m 12,6 km/h (3 Bft) 93,62 %
30.11.2016 15:30 3,4 C 3,9 C 1,7 C 70 % 0 lf 1030,6 hPa 0,0 l/m 2 min 0 min 84 W/m 14,6 km/h (3 Bft) 95,74 %
30.11.2016 15:32 3,4 C 3,9 C 1,7 C 70 % 0 lf 1030,6 hPa 0,0 l/m 2 min 0 min 82 W/m 16,7 km/h (3 Bft) 93,48 %
30.11.2016 15:34 3,4 C 3,9 C 1,7 C 70 % 0 lf 1030,6 hPa 0,0 l/m 2 min 0 min 79 W/m 16,7 km/h (3 Bft) 95,74 %
30.11.2016 15:36 3,3 C 3,9 C 1,7 C 70 % 0 lf 1030,7 hPa 0,0 l/m 2 min 0 min 75 W/m 14,6 km/h (3 Bft) 91,49 %
30.11.2016 15:38 3,3 C 3,9 C 1,7 C 70 % 0 lf 1030,7 hPa 0,0 l/m 2 min 0 min 72 W/m 16,7 km/h (3 Bft) 91,49 %
30.11.2016 15:40 3,3 C 3,9 C 1,7 C 70 % 0 lf 1030,7 hPa 0,0 l/m 2 min 0 min 70 W/m 12,6 km/h (3 Bft) 85,11 %
30.11.2016 15:42 3,3 C 3,9 C 1,1 C 71 % 0 lf 1030,7 hPa 0,0 l/m 2 min 0 min 68 W/m 12,6 km/h (3 Bft) 95,74 %
30.11.2016 15:44 3,2 C 3,9 C 1,1 C 71 % 0 lf 1030,6 hPa 0,0 l/m 2 min 0 min 68 W/m 12,6 km/h (3 Bft) 91,30 %
30.11.2016 15:46 3,2 C 3,3 C 1,1 C 71 % 0 lf 1030,6 hPa 0,0 l/m 2 min 0 min 73 W/m 14,6 km/h (3 Bft) 93,62 %
30.11.2016 15:48 3,2 C 3,3 C 1,1 C 71 % 0 lf 1030,6 hPa 0,0 l/m 2 min 0 min 82 W/m 12,6 km/h (3 Bft) 93,62 %
30.11.2016 15:50 3,2 C 3,3 C 1,1 C 71 % 0 lf 1030,5 hPa 0,0 l/m 2 min 0 min 85 W/m 14,6 km/h (3 Bft) 95,74 %
30.11.2016 15:52 3,2 C 3,3 C 1,1 C 71 % 0 lf 1030,6 hPa 0,0 l/m 2 min 0 min 83 W/m 12,6 km/h (3 Bft) 89,36 %
30.11.2016 15:54 3,1 C 3,3 C 1,1 C 71 % 0 lf 1030,6 hPa 0,0 l/m 2 min 0 min 81 W/m 14,6 km/h (3 Bft) 91,49 %
30.11.2016 15:56 3,1 C 3,3 C 1,1 C 71 % 0 lf 1030,7 hPa 0,0 l/m 2 min 0 min 79 W/m 14,6 km/h (3 Bft) 95,65 %
30.11.2016 15:58 3,1 C 3,3 C 1,1 C 71 % 0 lf 1030,7 hPa 0,0 l/m 2 min 0 min 77 W/m 8,4 km/h (2 Bft) 91,49 %
30.11.2016 16:00 3,1 C 3,3 C 1,1 C 71 % 0 lf 1030,8 hPa 0,0 l/m 2 min 0 min 72 W/m 12,6 km/h (3 Bft) 97,67 %
30.11.2016 16:02 3,1 C 3,3 C 1,1 C 71 % 0 lf 1030,8 hPa 0,0 l/m 2 min 0 min 72 W/m 16,7 km/h (3 Bft) 92,00 %
30.11.2016 16:04 3,0 C 3,3 C 1,1 C 71 % 0 lf 1030,7 hPa 0,0 l/m 2 min 0 min 72 W/m 10,5 km/h (2 Bft) 95,83 %
30.11.2016 16:06 3,0 C 2,8 C 0,6 C 71 % 0 lf 1030,8 hPa 0,0 l/m 2 min 0 min 71 W/m 10,5 km/h (2 Bft) 95,74 %
30.11.2016 16:08 3,0 C 2,8 C 0,6 C 71 % 0 lf 1030,8 hPa 0,0 l/m 2 min 0 min 97 W/m 12,6 km/h (3 Bft) 95,65 %
30.11.2016 16:10 2,9 C 2,8 C 0,6 C 72 % 0 lf 1030,8 hPa 0,0 l/m 2 min 0 min 99 W/m 10,5 km/h (2 Bft) 91,49 %
30.11.2016 16:12 2,9 C 2,8 C 0,6 C 72 % 0 lf 1030,8 hPa 0,0 l/m 2 min 0 min 90 W/m 10,5 km/h (2 Bft) 93,62 %
30.11.2016 16:14 2,9 C 2,8 C 0,6 C 72 % 0 lf 1030,8 hPa 0,0 l/m 2 min 0 min 34 W/m 10,5 km/h (2 Bft) 93,62 %
30.11.2016 16:16 2,9 C 2,8 C 0,6 C 72 % 0 lf 1030,9 hPa 0,0 l/m 2 min 0 min 25 W/m 12,6 km/h (3 Bft) 97,87 %
30.11.2016 16:18 2,9 C 2,8 C 0,6 C 72 % 0 lf 1030,8 hPa 0,0 l/m 0 min 0 min 25 W/m 10,5 km/h (2 Bft) 95,74 %
30.11.2016 16:20 2,8 C 2,8 C 0,6 C 72 % 0 lf 1030,7 hPa 0,0 l/m 0 min 0 min 23 W/m 12,6 km/h (3 Bft) 93,48 %
30.11.2016 16:22 2,8 C 2,8 C 0,0 C 72 % 0 lf 1030,7 hPa 0,0 l/m 0 min 0 min 21 W/m 10,5 km/h (2 Bft) 93,62 %
30.11.2016 16:24 2,8 C 2,2 C 0,0 C 72 % 0 lf 1030,7 hPa 0,0 l/m 0 min 0 min 21 W/m 10,5 km/h (2 Bft) 97,87 %
30.11.2016 16:26 2,7 C 2,2 C 0,0 C 73 % 0 lf 1030,7 hPa 0,0 l/m 0 min 0 min 21 W/m 10,5 km/h (2 Bft) 97,87 %
30.11.2016 16:28 2,7 C 2,2 C 0,6 C 73 % 0 lf 1030,7 hPa 0,0 l/m 0 min 0 min 19 W/m 12,6 km/h (3 Bft) 95,74 %
30.11.2016 16:30 2,7 C 2,8 C 0,6 C 73 % 0 lf 1030,7 hPa 0,0 l/m 0 min 0 min 20 W/m 10,5 km/h (2 Bft) 97,87 %
30.11.2016 16:32 2,7 C 2,8 C 0,6 C 73 % 0 lf 1030,6 hPa 0,0 l/m 0 min 0 min 21 W/m 12,6 km/h (3 Bft) 97,83 %
30.11.2016 16:34 2,7 C 2,8 C 0,6 C 73 % 0 lf 1030,6 hPa 0,0 l/m 0 min 0 min 19 W/m 12,6 km/h (3 Bft) 97,87 %
30.11.2016 16:36 2,6 C 2,8 C 0,6 C 73 % 0 lf 1030,6 hPa 0,0 l/m 0 min 0 min 16 W/m 14,6 km/h (3 Bft) 95,74 %
30.11.2016 16:38 2,6 C 2,8 C 0,6 C 73 % 0 lf 1030,6 hPa 0,0 l/m 0 min 0 min 17 W/m 10,5 km/h (2 Bft) 97,87 %
30.11.2016 16:40 2,6 C 2,8 C 0,6 C 74 % 0 lf 1030,6 hPa 0,0 l/m 0 min 0 min 15 W/m 10,5 km/h (2 Bft) 95,74 %
30.11.2016 16:42 2,6 C 2,8 C 0,6 C 74 % 0 lf 1030,6 hPa 0,0 l/m 0 min 0 min 12 W/m 8,4 km/h (2 Bft) 97,83 %
30.11.2016 16:44 2,6 C 2,8 C 0,6 C 74 % 0 lf 1030,6 hPa 0,0 l/m 0 min 0 min 15 W/m 10,5 km/h (2 Bft) 95,74 %
30.11.2016 16:46 2,6 C 2,8 C 0,6 C 74 % 0 lf 1030,6 hPa 0,0 l/m 0 min 0 min 14 W/m 8,4 km/h (2 Bft) 97,87 %
30.11.2016 16:48 2,6 C 2,8 C 0,6 C 74 % 0 lf 1030,5 hPa 0,0 l/m 0 min 0 min 0 W/m 12,6 km/h (3 Bft) 97,87 %
30.11.2016 16:50 2,6 C 2,8 C 0,6 C 74 % 0 lf 1030,5 hPa 0,0 l/m 0 min 0 min 0 W/m 12,6 km/h (3 Bft) 95,74 %
30.11.2016 16:52 2,6 C 2,8 C 0,6 C 75 % 0 lf 1030,4 hPa 0,0 l/m 0 min 0 min 0 W/m 10,5 km/h (2 Bft) 100,00 %
30.11.2016 16:54 2,5 C 2,8 C 0,6 C 75 % 0 lf 1030,4 hPa 0,0 l/m 0 min 0 min 0 W/m 10,5 km/h (2 Bft) 100,00 %
30.11.2016 16:56 2,5 C 2,8 C 0,6 C 75 % 0 lf 1030,4 hPa 0,0 l/m 0 min 0 min 0 W/m 10,5 km/h (2 Bft) 97,87 %
30.11.2016 16:58 2,5 C 2,8 C 0,6 C 75 % 0 lf 1030,3 hPa 0,0 l/m 0 min 0 min 0 W/m 8,4 km/h (2 Bft) 95,74 %
30.11.2016 17:00 2,5 C 2,8 C 0,6 C 75 % 0 lf 1030,4 hPa 0,0 l/m 0 min 0 min 0 W/m 14,6 km/h (3 Bft) 100,00 %
30.11.2016 17:02 2,5 C 2,8 C 1,1 C 75 % 0 lf 1030,4 hPa 0,0 l/m 0 min 0 min 0 W/m 12,6 km/h (3 Bft) 100,00 %
30.11.2016 17:04 2,5 C 2,8 C 1,1 C 75 % 0 lf 1030,4 hPa 0,0 l/m 0 min 0 min 0 W/m 12,6 km/h (3 Bft) 95,74 %
30.11.2016 17:06 2,5 C 2,8 C 1,1 C 75 % 0 lf 1030,3 hPa 0,0 l/m 0 min 0 min 0 W/m 10,5 km/h (2 Bft) 97,83 %
30.11.2016 17:08 2,5 C 2,8 C 1,1 C 75 % 0 lf 1030,3 hPa 0,0 l/m 0 min 0 min 0 W/m 12,6 km/h (3 Bft) 97,87 %
30.11.2016 17:10 2,5 C 2,8 C 1,1 C 75 % 0 lf 1030,3 hPa 0,0 l/m 0 min 0 min 0 W/m 12,6 km/h (3 Bft) 100,00 %
30.11.2016 17:12 2,5 C 2,8 C 1,1 C 75 % 0 lf 1030,4 hPa 0,0 l/m 0 min 0 min 0 W/m 12,6 km/h (3 Bft) 100,00 %
30.11.2016 17:14 2,5 C 2,8 C 0,6 C 75 % 0 lf 1030,3 hPa 0,0 l/m 0 min 0 min 0 W/m 10,5 km/h (2 Bft) 100,00 %
30.11.2016 17:16 2,5 C 2,8 C 1,1 C 75 % 0 lf 1030,3 hPa 0,0 l/m 0 min 0 min 0 W/m 12,6 km/h (3 Bft) 97,87 %
30.11.2016 17:18 2,5 C 2,8 C 0,6 C 75 % 0 lf 1030,3 hPa 0,0 l/m 0 min 0 min 0 W/m 12,6 km/h (3 Bft) 100,00 %
30.11.2016 17:20 2,5 C 2,8 C 1,1 C 76 % 0 lf 1030,3 hPa 0,0 l/m 0 min 0 min 0 W/m 12,6 km/h (3 Bft) 100,00 %
30.11.2016 17:22 2,5 C 2,8 C 0,6 C 76 % 0 lf 1030,3 hPa 0,0 l/m 0 min 0 min 0 W/m 14,6 km/h (3 Bft) 91,49 %
30.11.2016 17:24 2,5 C 2,8 C 0,6 C 76 % 0 lf 1030,3 hPa 0,0 l/m 0 min 0 min 0 W/m 10,5 km/h (2 Bft) 97,87 %
30.11.2016 17:26 2,5 C 2,8 C 0,6 C 76 % 0 lf 1030,3 hPa 0,0 l/m 0 min 0 min 0 W/m 12,6 km/h (3 Bft) 95,74 %
30.11.2016 17:28 2,5 C 2,8 C 0,6 C 76 % 0 lf 1030,3 hPa 0,0 l/m 0 min 0 min 0 W/m 12,6 km/h (3 Bft) 97,87 %
30.11.2016 17:30 2,5 C 2,8 C 0,6 C 76 % 0 lf 1030,3 hPa 0,0 l/m 0 min 0 min 0 W/m 14,6 km/h (3 Bft) 100,00 %
30.11.2016 17:32 2,4 C 2,8 C 0,6 C 76 % 0 lf 1030,3 hPa 0,0 l/m 0 min 0 min 0 W/m 14,6 km/h (3 Bft) 97,87 %
30.11.2016 17:34 2,4 C 2,2 C 0,6 C 76 % 0 lf 1030,3 hPa 0,0 l/m 0 min 0 min 0 W/m 12,6 km/h (3 Bft) 97,87 %
30.11.2016 17:36 2,4 C 2,2 C 0,6 C 76 % 0 lf 1030,3 hPa 0,0 l/m 0 min 0 min 0 W/m 14,6 km/h (3 Bft) 95,74 %
30.11.2016 17:38 2,4 C 2,2 C 0,6 C 76 % 0 lf 1030,3 hPa 0,0 l/m 0 min 0 min 0 W/m 10,5 km/h (2 Bft) 93,62 %
30.11.2016 17:40 2,4 C 2,2 C 0,6 C 76 % 0 lf 1030,4 hPa 0,0 l/m 0 min 0 min 0 W/m 10,5 km/h (2 Bft) 91,49 %
30.11.2016 17:42 2,4 C 2,2 C 0,0 C 76 % 0 lf 1030,4 hPa 0,0 l/m 0 min 0 min 0 W/m 14,6 km/h (3 Bft) 97,83 %
30.11.2016 17:44 2,3 C 2,2 C 0,0 C 76 % 0 lf 1030,4 hPa 0,0 l/m 0 min 0 min 0 W/m 12,6 km/h (3 Bft) 95,74 %
30.11.2016 17:46 2,3 C 2,2 C 0,0 C 76 % 0 lf 1030,4 hPa 0,0 l/m 0 min 0 min 0 W/m 10,5 km/h (2 Bft) 95,74 %
30.11.2016 17:48 2,3 C 2,2 C 0,0 C 76 % 0 lf 1030,4 hPa 0,0 l/m 0 min 0 min 0 W/m 10,5 km/h (2 Bft) 97,87 %
30.11.2016 17:50 2,3 C 2,2 C 0,0 C 76 % 0 lf 1030,5 hPa 0,0 l/m 0 min 0 min 0 W/m 12,6 km/h (3 Bft) 97,87 %
30.11.2016 17:52 2,3 C 2,2 C 0,0 C 77 % 0 lf 1030,5 hPa 0,0 l/m 0 min 0 min 0 W/m 16,7 km/h (3 Bft) 97,87 %
30.11.2016 17:54 2,3 C 2,2 C 0,0 C 77 % 0 lf 1030,5 hPa 0,0 l/m 0 min 0 min 0 W/m 14,6 km/h (3 Bft) 97,83 %
30.11.2016 17:56 2,3 C 2,2 C 0,0 C 77 % 0 lf 1030,5 hPa 0,0 l/m 0 min 0 min 0 W/m 14,6 km/h (3 Bft) 95,74 %
30.11.2016 17:58 2,2 C 2,2 C 0,0 C 77 % 0 lf 1030,5 hPa 0,0 l/m 0 min 0 min 0 W/m 14,6 km/h (3 Bft) 97,87 %
30.11.2016 18:00 2,2 C 2,2 C 0,0 C 77 % 0 lf 1030,5 hPa 0,0 l/m 0 min 0 min 0 W/m 14,6 km/h (3 Bft) 97,87 %
30.11.2016 18:02 2,2 C 2,2 C 0,0 C 77 % 0 lf 1030,4 hPa 0,0 l/m 0 min 0 min 0 W/m 12,6 km/h (3 Bft) 93,62 %
30.11.2016 18:06 2,2 C 1,7 C 0,0 C 77 % 0 lf 1030,4 hPa 0,0 l/m 0 min 0 min 0 W/m 16,7 km/h (3 Bft) 95,74 %
30.11.2016 18:08 2,2 C 1,7 C 0,0 C 77 % 0 lf 1030,3 hPa 0,0 l/m 0 min 0 min 0 W/m 10,5 km/h (2 Bft) 95,74 %
30.11.2016 18:10 2,1 C 1,7 C 0,0 C 77 % 0 lf 1030,3 hPa 0,0 l/m 0 min 0 min 0 W/m 12,6 km/h (3 Bft) 97,87 %
30.11.2016 18:12 2,1 C 1,7 C 0,0 C 77 % 0 lf 1030,3 hPa 0,0 l/m 0 min 0 min 0 W/m 10,5 km/h (2 Bft) 91,49 %
30.11.2016 18:14 2,1 C 1,7 C 0,0 C 77 % 0 lf 1030,4 hPa 0,0 l/m 0 min 0 min 0 W/m 16,7 km/h (3 Bft) 95,74 %
30.11.2016 18:16 2,1 C 1,7 C 0,0 C 78 % 0 lf 1030,4 hPa 0,0 l/m 0 min 0 min 0 W/m 14,6 km/h (3 Bft) 97,83 %
30.11.2016 18:18 2,1 C 2,2 C 0,0 C 77 % 0 lf 1030,4 hPa 0,0 l/m 0 min 0 min 0 W/m 16,7 km/h (3 Bft) 97,87 %
30.11.2016 18:20 2,0 C 1,7 C 0,0 C 78 % 0 lf 1030,5 hPa 0,0 l/m 0 min 0 min 0 W/m 12,6 km/h (3 Bft) 91,49 %
30.11.2016 18:22 2,0 C 1,7 C 0,0 C 78 % 0 lf 1030,4 hPa 0,0 l/m 0 min 0 min 0 W/m 14,6 km/h (3 Bft) 95,74 %
30.11.2016 18:24 2,0 C 1,7 C 0,0 C 78 % 0 lf 1030,6 hPa 0,0 l/m 0 min 0 min 0 W/m 16,7 km/h (3 Bft) 97,87 %
30.11.2016 18:26 2,0 C 1,7 C 0,0 C 78 % 0 lf 1030,5 hPa 0,0 l/m 0 min 0 min 0 W/m 14,6 km/h (3 Bft) 95,74 %
30.11.2016 18:28 1,9 C 1,7 C 0,0 C 78 % 0 lf 1030,6 hPa 0,0 l/m 0 min 0 min 0 W/m 14,6 km/h (3 Bft) 93,48 %
30.11.2016 18:30 1,9 C 1,7 C 0,0 C 78 % 0 lf 1030,7 hPa 0,0 l/m 0 min 0 min 0 W/m 14,6 km/h (3 Bft) 95,74 %
30.11.2016 18:32 1,9 C 1,7 C 0,0 C 78 % 0 lf 1030,6 hPa 0,0 l/m 0 min 0 min 0 W/m 16,7 km/h (3 Bft) 95,74 %
30.11.2016 18:34 1,9 C 1,7 C 0,0 C 78 % 0 lf 1030,6 hPa 0,0 l/m 0 min 0 min 0 W/m 12,6 km/h (3 Bft) 95,74 %
30.11.2016 18:36 1,9 C 1,7 C 0,0 C 78 % 0 lf 1030,6 hPa 0,0 l/m 0 min 0 min 0 W/m 14,6 km/h (3 Bft) 95,74 %
30.11.2016 18:38 1,9 C 1,7 C 0,0 C 78 % 0 lf 1030,6 hPa 0,0 l/m 0 min 0 min 0 W/m 14,6 km/h (3 Bft) 93,62 %
30.11.2016 18:40 1,9 C 1,7 C 0,0 C 79 % 0 lf 1030,6 hPa 0,0 l/m 0 min 0 min 0 W/m 14,6 km/h (3 Bft) 95,65 %
30.11.2016 18:42 1,9 C 1,7 C 0,0 C 79 % 0 lf 1030,7 hPa 0,0 l/m 0 min 0 min 0 W/m 14,6 km/h (3 Bft) 95,74 %
30.11.2016 18:44 1,8 C 1,7 C 0,0 C 79 % 0 lf 1030,7 hPa 0,0 l/m 0 min 0 min 0 W/m 12,6 km/h (3 Bft) 93,62 %
30.11.2016 18:46 1,8 C 1,7 C 0,0 C 79 % 0 lf 1030,7 hPa 0,0 l/m 0 min 0 min 0 W/m 14,6 km/h (3 Bft) 93,62 %
30.11.2016 18:48 1,8 C 1,7 C -0,6 C 79 % 0 lf 1030,6 hPa 0,0 l/m 0 min 0 min 0 W/m 14,6 km/h (3 Bft) 95,74 %
30.11.2016 18:50 1,8 C 1,7 C -0,6 C 79 % 0 lf 1030,7 hPa 0,0 l/m 0 min 0 min 0 W/m 14,6 km/h (3 Bft) 95,65 %
30.11.2016 18:52 1,8 C 1,7 C -0,6 C 79 % 0 lf 1030,6 hPa 0,0 l/m 0 min 0 min 0 W/m 12,6 km/h (3 Bft) 93,62 %
30.11.2016 18:54 1,7 C 1,7 C 0,0 C 79 % 0 lf 1030,6 hPa 0,0 l/m 0 min 0 min 0 W/m 16,7 km/h (3 Bft) 97,87 %
30.11.2016 18:56 1,7 C 1,7 C 0,0 C 79 % 0 lf 1030,6 hPa 0,0 l/m 0 min 0 min 0 W/m 10,5 km/h (2 Bft) 95,74 %
30.11.2016 18:58 1,7 C 1,7 C 0,0 C 79 % 0 lf 1030,5 hPa 0,0 l/m 0 min 0 min 0 W/m 16,7 km/h (3 Bft) 95,74 %
30.11.2016 19:00 1,7 C 1,7 C 0,0 C 79 % 0 lf 1030,4 hPa 0,0 l/m 0 min 0 min 0 W/m 16,7 km/h (3 Bft) 95,74 %
30.11.2016 19:02 1,7 C 1,7 C 0,0 C 79 % 0 lf 1030,4 hPa 0,0 l/m 0 min 0 min 0 W/m 10,5 km/h (2 Bft) 97,83 %
30.11.2016 19:04 1,7 C 1,7 C 0,0 C 79 % 0 lf 1030,2 hPa 0,0 l/m 0 min 0 min 0 W/m 14,6 km/h (3 Bft) 93,62 %
30.11.2016 19:05 1,7 C 1,7 C 0,0 C 79 % 0 lf 1030,3 hPa 0,0 l/m 0 min 0 min 0 W/m 12,6 km/h (3 Bft) 100,00 %
30.11.2016 19:06 1,7 C 1,7 C 0,0 C 79 % 0 lf 1030,3 hPa 0,0 l/m 0 min 0 min 0 W/m 12,6 km/h (3 Bft) 100,00 %
30.11.2016 19:08 1,7 C 1,7 C 0,0 C 79 % 0 lf 1030,4 hPa 0,0 l/m 0 min 0 min 0 W/m 6,3 km/h (2 Bft) 96,39 %
30.11.2016 19:10 1,7 C 1,7 C 0,0 C 79 % 0 lf 1030,4 hPa 0,0 l/m 0 min 0 min 0 W/m 20,9 km/h (4 Bft) 91,80 %
30.11.2016 19:12 1,7 C 1,7 C 0,0 C 79 % 0 lf 1030,3 hPa 0,0 l/m 0 min 0 min 0 W/m 16,7 km/h (3 Bft) 94,44 %
30.11.2016 19:14 1,7 C 1,7 C 0,0 C 79 % 0 lf 1030,4 hPa 0,0 l/m 0 min 0 min 0 W/m 16,7 km/h (3 Bft) 95,65 %
30.11.2016 19:16 1,7 C 1,7 C 0,0 C 79 % 0 lf 1030,4 hPa 0,0 l/m 0 min 0 min 0 W/m 14,6 km/h (3 Bft) 96,61 %
30.11.2016 19:18 1,8 C 1,7 C 0,0 C 79 % 0 lf 1030,4 hPa 0,0 l/m 0 min 0 min 0 W/m 16,7 km/h (3 Bft) 97,14 %
30.11.2016 19:20 1,7 C 1,7 C 0,0 C 79 % 0 lf 1030,5 hPa 0,0 l/m 0 min 0 min 0 W/m 14,6 km/h (3 Bft) 94,44 %
30.11.2016 19:22 1,8 C 1,7 C 0,0 C 79 % 0 lf 1030,5 hPa 0,0 l/m 0 min 0 min 0 W/m 12,6 km/h (3 Bft) 97,87 %
30.11.2016 19:24 1,8 C 1,7 C 0,0 C 79 % 0 lf 1030,5 hPa 0,0 l/m 0 min 0 min 0 W/m 10,5 km/h (2 Bft) 93,88 %
30.11.2016 19:26 1,8 C 1,7 C -0,6 C 80 % 0 lf 1030,5 hPa 0,0 l/m 0 min 0 min 0 W/m 12,6 km/h (3 Bft) 93,88 %
30.11.2016 19:28 1,7 C 1,7 C -0,6 C 80 % 0 lf 1030,5 hPa 0,0 l/m 0 min 0 min 0 W/m 14,6 km/h (3 Bft) 94,29 %
30.11.2016 19:30 1,7 C 1,7 C -0,6 C 80 % 0 lf 1030,4 hPa 0,0 l/m 0 min 0 min 0 W/m 14,6 km/h (3 Bft) 96,30 %
30.11.2016 19:32 1,7 C 1,7 C 0,0 C 80 % 0 lf 1030,4 hPa 0,0 l/m 0 min 0 min 0 W/m 14,6 km/h (3 Bft) 90,00 %
30.11.2016 19:34 1,7 C 1,7 C 0,0 C 80 % 0 lf 1030,4 hPa 0,0 l/m 0 min 0 min 0 W/m 14,6 km/h (3 Bft) 95,83 %
30.11.2016 19:36 1,7 C 1,7 C 0,0 C 80 % 0 lf 1030,5 hPa 0,0 l/m 0 min 0 min 0 W/m 14,6 km/h (3 Bft) 94,44 %
30.11.2016 19:38 1,7 C 1,7 C 0,0 C 80 % 0 lf 1030,6 hPa 0,0 l/m 0 min 0 min 0 W/m 12,6 km/h (3 Bft) 92,45 %
30.11.2016 19:40 1,7 C 1,7 C 0,0 C 80 % 0 lf 1030,6 hPa 0,0 l/m 0 min 0 min 0 W/m 14,6 km/h (3 Bft) 94,00 %
30.11.2016 19:42 1,7 C 1,7 C 0,0 C 80 % 0 lf 1030,6 hPa 0,0 l/m 0 min 0 min 0 W/m 16,7 km/h (3 Bft) 93,88 %
30.11.2016 19:44 1,7 C 2,2 C 0,0 C 80 % 0 lf 1030,6 hPa 0,0 l/m 0 min 0 min 0 W/m 14,6 km/h (3 Bft) 95,74 %
30.11.2016 19:46 1,7 C 2,2 C 0,6 C 80 % 0 lf 1030,6 hPa 0,0 l/m 0 min 0 min 0 W/m 16,7 km/h (3 Bft) 100,00 %
30.11.2016 19:48 1,7 C 2,2 C 0,6 C 81 % 0 lf 1030,7 hPa 0,0 l/m 0 min 0 min 0 W/m 18,8 km/h (3 Bft) 94,34 %
30.11.2016 19:50 1,8 C 2,2 C 0,6 C 80 % 0 lf 1030,7 hPa 0,0 l/m 0 min 0 min 0 W/m 20,9 km/h (4 Bft) 94,00 %
30.11.2016 19:52 1,8 C 2,2 C 0,6 C 81 % 0 lf 1030,7 hPa 0,0 l/m 0 min 0 min 0 W/m 20,9 km/h (4 Bft) 97,96 %
30.11.2016 19:54 1,8 C 2,2 C 0,6 C 81 % 0 lf 1030,7 hPa 0,0 l/m 0 min 0 min 0 W/m 23,0 km/h (4 Bft) 94,29 %
30.11.2016 19:56 1,8 C 2,2 C 0,6 C 81 % 0 lf 1030,7 hPa 0,0 l/m 0 min 0 min 0 W/m 16,7 km/h (3 Bft) 98,15 %
30.11.2016 19:58 1,9 C 2,2 C 0,6 C 81 % 0 lf 1030,7 hPa 0,0 l/m 0 min 0 min 0 W/m 16,7 km/h (3 Bft) 97,96 %
30.11.2016 20:00 1,9 C 2,2 C 0,6 C 80 % 0 lf 1030,6 hPa 0,0 l/m 0 min 0 min 0 W/m 16,7 km/h (3 Bft) 95,92 %
30.11.2016 20:02 1,9 C 2,2 C 0,6 C 80 % 0 lf 1030,7 hPa 0,0 l/m 0 min 0 min 0 W/m 16,7 km/h (3 Bft) 94,29 %
30.11.2016 20:04 1,9 C 2,2 C 0,6 C 80 % 0 lf 1030,6 hPa 0,0 l/m 0 min 0 min 0 W/m 16,7 km/h (3 Bft) 98,15 %
30.11.2016 20:06 2,0 C 2,2 C 0,6 C 80 % 0 lf 1030,6 hPa 0,0 l/m 0 min 0 min 0 W/m 18,8 km/h (3 Bft) 98,00 %
30.11.2016 20:08 2,0 C 2,8 C 0,6 C 80 % 0 lf 1030,6 hPa 0,0 l/m 0 min 0 min 0 W/m 18,8 km/h (3 Bft) 97,96 %
30.11.2016 20:10 2,0 C 2,8 C 0,6 C 80 % 0 lf 1030,5 hPa 0,0 l/m 0 min 0 min 0 W/m 14,6 km/h (3 Bft) 97,14 %
30.11.2016 20:12 2,1 C 2,8 C 0,6 C 80 % 0 lf 1030,6 hPa 0,0 l/m 0 min 0 min 0 W/m 14,6 km/h (3 Bft) 94,34 %
30.11.2016 20:14 2,1 C 2,2 C 0,6 C 80 % 0 lf 1030,6 hPa 0,0 l/m 0 min 0 min 0 W/m 14,6 km/h (3 Bft) 96,00 %
30.11.2016 20:16 2,1 C 2,8 C 0,6 C 80 % 0 lf 1030,6 hPa 0,0 l/m 0 min 0 min 0 W/m 14,6 km/h (3 Bft) 95,92 %
30.11.2016 20:18 2,1 C 2,8 C 0,6 C 80 % 0 lf 1030,4 hPa 0,0 l/m 0 min 0 min 0 W/m 20,9 km/h (4 Bft) 91,43 %
30.11.2016 20:20 2,1 C 2,8 C 0,6 C 80 % 0 lf 1030,5 hPa 0,0 l/m 0 min 0 min 0 W/m 18,8 km/h (3 Bft) 94,44 %
30.11.2016 20:22 2,1 C 2,8 C 0,6 C 80 % 0 lf 1030,5 hPa 0,0 l/m 0 min 0 min 0 W/m 16,7 km/h (3 Bft) 97,96 %
30.11.2016 20:24 2,1 C 2,8 C 1,1 C 80 % 0 lf 1030,4 hPa 0,0 l/m 0 min 0 min 0 W/m 16,7 km/h (3 Bft) 95,92 %
30.11.2016 20:26 2,1 C 2,8 C 1,1 C 80 % 0 lf 1030,4 hPa 0,0 l/m 0 min 0 min 0 W/m 18,8 km/h (3 Bft) 100,00 %
30.11.2016 20:28 2,1 C 2,8 C 1,1 C 80 % 0 lf 1030,4 hPa 0,0 l/m 0 min 0 min 0 W/m 18,8 km/h (3 Bft) 98,15 %
30.11.2016 20:30 2,1 C 2,8 C 1,1 C 80 % 0 lf 1030,4 hPa 0,0 l/m 0 min 0 min 0 W/m 16,7 km/h (3 Bft) 100,00 %
30.11.2016 20:32 2,1 C 2,8 C 1,1 C 80 % 0 lf 1030,4 hPa 0,0 l/m 0 min 0 min 0 W/m 16,7 km/h (3 Bft) 95,92 %
30.11.2016 20:34 2,2 C 2,8 C 1,1 C 80 % 0 lf 1030,4 hPa 0,0 l/m 0 min 0 min 0 W/m 25,1 km/h (4 Bft) 97,14 %
30.11.2016 20:36 2,2 C 2,8 C 1,1 C 80 % 0 lf 1030,4 hPa 0,0 l/m 0 min 0 min 0 W/m 20,9 km/h (4 Bft) 98,11 %
30.11.2016 20:38 2,2 C 2,8 C 1,1 C 80 % 0 lf 1030,4 hPa 0,0 l/m 0 min 0 min 0 W/m 18,8 km/h (3 Bft) 100,00 %
30.11.2016 20:40 2,2 C 2,8 C 1,1 C 80 % 0 lf 1030,4 hPa 0,0 l/m 0 min 0 min 0 W/m 18,8 km/h (3 Bft) 97,96 %
30.11.2016 20:42 2,2 C 2,8 C 1,1 C 80 % 0 lf 1030,4 hPa 0,0 l/m 0 min 0 min 0 W/m 20,9 km/h (4 Bft) 100,00 %
30.11.2016 20:44 2,2 C 2,8 C 1,1 C 80 % 0 lf 1030,3 hPa 0,0 l/m 0 min 0 min 0 W/m 18,8 km/h (3 Bft) 100,00 %
30.11.2016 20:46 2,3 C 2,8 C 1,1 C 80 % 0 lf 1030,4 hPa 0,0 l/m 0 min 0 min 0 W/m 14,6 km/h (3 Bft) 95,92 %
30.11.2016 20:48 2,3 C 2,8 C 1,1 C 80 % 0 lf 1030,4 hPa 0,0 l/m 0 min 0 min 0 W/m 14,6 km/h (3 Bft) 97,96 %
30.11.2016 20:50 2,3 C 2,8 C 1,1 C 80 % 0 lf 1030,4 hPa 0,0 l/m 0 min 0 min 0 W/m 16,7 km/h (3 Bft) 97,14 %
30.11.2016 20:52 2,3 C 2,8 C 1,1 C 80 % 0 lf 1030,4 hPa 0,0 l/m 0 min 0 min 0 W/m 20,9 km/h (4 Bft) 100,00 %
30.11.2016 20:54 2,3 C 2,8 C 1,1 C 80 % 0 lf 1030,4 hPa 0,0 l/m 0 min 0 min 0 W/m 16,7 km/h (3 Bft) 100,00 %
30.11.2016 20:56 2,3 C 2,8 C 1,1 C 80 % 0 lf 1030,4 hPa 0,0 l/m 0 min 0 min 0 W/m 18,8 km/h (3 Bft) 95,83 %
30.11.2016 20:58 2,4 C 2,8 C 1,1 C 80 % 0 lf 1030,4 hPa 0,0 l/m 0 min 0 min 0 W/m 16,7 km/h (3 Bft) 94,44 %
30.11.2016 21:00 2,4 C 2,8 C 1,1 C 80 % 0 lf 1030,4 hPa 0,0 l/m 0 min 0 min 0 W/m 14,6 km/h (3 Bft) 96,23 %
30.11.2016 21:02 2,4 C 2,8 C 1,1 C 80 % 0 lf 1030,4 hPa 0,0 l/m 0 min 0 min 0 W/m 20,9 km/h (4 Bft) 98,00 %
30.11.2016 21:04 2,4 C 2,8 C 1,1 C 80 % 0 lf 1030,3 hPa 0,0 l/m 0 min 0 min 0 W/m 16,7 km/h (3 Bft) 95,92 %
30.11.2016 21:06 2,4 C 2,8 C 1,1 C 80 % 0 lf 1030,3 hPa 0,0 l/m 0 min 0 min 0 W/m 16,7 km/h (3 Bft) 94,29 %
30.11.2016 21:08 2,4 C 2,8 C 1,1 C 80 % 0 lf 1030,3 hPa 0,0 l/m 0 min 0 min 0 W/m 14,6 km/h (3 Bft) 92,59 %
30.11.2016 21:10 2,4 C 2,8 C 1,1 C 80 % 0 lf 1030,2 hPa 0,0 l/m 0 min 0 min 0 W/m 16,7 km/h (3 Bft) 95,92 %
30.11.2016 21:12 2,5 C 2,8 C 1,1 C 80 % 0 lf 1030,2 hPa 0,0 l/m 0 min 0 min 0 W/m 16,7 km/h (3 Bft) 91,84 %
30.11.2016 21:14 2,5 C 2,8 C 1,1 C 80 % 0 lf 1030,2 hPa 0,0 l/m 0 min 0 min 0 W/m 12,6 km/h (3 Bft) 91,43 %
30.11.2016 21:16 2,5 C 2,8 C 1,1 C 80 % 0 lf 1030,2 hPa 0,0 l/m 0 min 0 min 0 W/m 25,1 km/h (4 Bft) 92,59 %
30.11.2016 21:18 2,5 C 2,8 C 1,1 C 80 % 0 lf 1030,2 hPa 0,0 l/m 0 min 0 min 0 W/m 18,8 km/h (3 Bft) 90,00 %
30.11.2016 21:20 2,5 C 2,8 C 1,1 C 80 % 0 lf 1030,3 hPa 0,0 l/m 0 min 0 min 0 W/m 18,8 km/h (3 Bft) 89,58 %
30.11.2016 21:22 2,5 C 2,8 C 1,1 C 80 % 0 lf 1030,2 hPa 0,0 l/m 0 min 0 min 0 W/m 16,7 km/h (3 Bft) 93,62 %
30.11.2016 21:24 2,6 C 2,8 C 1,1 C 80 % 0 lf 1030,2 hPa 0,0 l/m 0 min 0 min 0 W/m 16,7 km/h (3 Bft) 94,29 %
30.11.2016 21:26 2,6 C 2,8 C 1,1 C 80 % 0 lf 1030,1 hPa 0,0 l/m 0 min 0 min 0 W/m 20,9 km/h (4 Bft) 90,74 %
30.11.2016 21:28 2,6 C 2,8 C 1,1 C 80 % 0 lf 1030,1 hPa 0,0 l/m 0 min 0 min 0 W/m 18,8 km/h (3 Bft) 94,00 %
30.11.2016 21:30 2,6 C 2,8 C 1,1 C 80 % 0 lf 1030,1 hPa 0,0 l/m 0 min 0 min 0 W/m 14,6 km/h (3 Bft) 91,84 %
30.11.2016 21:32 2,6 C 2,8 C 1,1 C 80 % 0 lf 1030,0 hPa 0,0 l/m 0 min 0 min 0 W/m 20,9 km/h (4 Bft) 94,29 %
30.11.2016 21:34 2,6 C 2,8 C 1,1 C 80 % 0 lf 1030,1 hPa 0,0 l/m 0 min 0 min 0 W/m 18,8 km/h (3 Bft) 90,57 %
30.11.2016 21:36 2,6 C 2,8 C 1,1 C 80 % 0 lf 1030,1 hPa 0,0 l/m 0 min 0 min 0 W/m 20,9 km/h (4 Bft) 90,00 %
30.11.2016 21:38 2,6 C 2,8 C 1,1 C 80 % 0 lf 1030,1 hPa 0,0 l/m 0 min 0 min 0 W/m 20,9 km/h (4 Bft) 93,88 %
30.11.2016 21:40 2,6 C 2,8 C 1,1 C 80 % 0 lf 1030,1 hPa 0,0 l/m 0 min 0 min 0 W/m 18,8 km/h (3 Bft) 91,43 %
30.11.2016 21:42 2,6 C 2,8 C 1,1 C 80 % 0 lf 1030,1 hPa 0,0 l/m 0 min 0 min 0 W/m 18,8 km/h (3 Bft) 94,44 %
30.11.2016 21:44 2,6 C 2,8 C 1,1 C 80 % 0 lf 1030,1 hPa 0,0 l/m 0 min 0 min 0 W/m 20,9 km/h (4 Bft) 95,92 %
30.11.2016 21:46 2,6 C 2,8 C 1,1 C 80 % 0 lf 1030,1 hPa 0,0 l/m 0 min 0 min 0 W/m 20,9 km/h (4 Bft) 91,84 %
30.11.2016 21:48 2,6 C 2,8 C 1,1 C 80 % 0 lf 1030,1 hPa 0,0 l/m 0 min 0 min 0 W/m 23,0 km/h (4 Bft) 94,29 %
30.11.2016 21:50 2,6 C 2,8 C 1,1 C 80 % 0 lf 1030,0 hPa 0,0 l/m 0 min 0 min 0 W/m 23,0 km/h (4 Bft) 94,44 %
30.11.2016 21:52 2,7 C 2,8 C 1,1 C 80 % 0 lf 1030,1 hPa 0,0 l/m 0 min 0 min 0 W/m 20,9 km/h (4 Bft) 92,00 %
30.11.2016 21:54 2,7 C 2,8 C 1,1 C 80 % 0 lf 1030,1 hPa 0,0 l/m 0 min 0 min 0 W/m 27,2 km/h (4 Bft) 100,00 %
30.11.2016 21:56 2,7 C 2,8 C 1,1 C 80 % 0 lf 1030,0 hPa 0,0 l/m 0 min 0 min 0 W/m 23,0 km/h (4 Bft) 100,00 %
30.11.2016 21:58 2,7 C 2,8 C 1,1 C 80 % 0 lf 1030,0 hPa 0,0 l/m 0 min 0 min 0 W/m 25,1 km/h (4 Bft) 98,11 %
30.11.2016 22:00 2,7 C 2,8 C 1,1 C 80 % 0 lf 1030,1 hPa 0,0 l/m 0 min 0 min 0 W/m 23,0 km/h (4 Bft) 96,00 %
30.11.2016 22:02 2,7 C 2,8 C 1,1 C 80 % 0 lf 1030,1 hPa 0,0 l/m 0 min 0 min 0 W/m 20,9 km/h (4 Bft) 100,00 %
30.11.2016 22:04 2,7 C 2,8 C 1,1 C 80 % 0 lf 1030,2 hPa 0,0 l/m 0 min 0 min 0 W/m 18,8 km/h (3 Bft) 97,14 %
30.11.2016 22:06 2,7 C 2,8 C 1,1 C 80 % 0 lf 1030,2 hPa 0,0 l/m 0 min 0 min 0 W/m 18,8 km/h (3 Bft) 100,00 %
30.11.2016 22:08 2,7 C 2,8 C 1,1 C 80 % 0 lf 1030,2 hPa 0,0 l/m 0 min 0 min 0 W/m 14,6 km/h (3 Bft) 96,23 %
30.11.2016 22:10 2,7 C 2,8 C 1,1 C 80 % 0 lf 1030,2 hPa 0,0 l/m 0 min 0 min 0 W/m 16,7 km/h (3 Bft) 98,00 %
30.11.2016 22:12 2,6 C 2,8 C 1,1 C 81 % 0 lf 1030,2 hPa 0,0 l/m 0 min 0 min 0 W/m 16,7 km/h (3 Bft) 100,00 %
30.11.2016 22:14 2,6 C 2,8 C 1,1 C 81 % 0 lf 1030,1 hPa 0,0 l/m 0 min 0 min 0 W/m 23,0 km/h (4 Bft) 97,14 %
30.11.2016 22:16 2,6 C 2,8 C 1,1 C 81 % 0 lf 1030,2 hPa 0,0 l/m 0 min 0 min 0 W/m 16,7 km/h (3 Bft) 96,30 %
30.11.2016 22:18 2,7 C 2,8 C 1,1 C 81 % 0 lf 1030,2 hPa 0,0 l/m 0 min 0 min 0 W/m 20,9 km/h (4 Bft) 100,00 %
30.11.2016 22:20 2,7 C 2,8 C 1,1 C 81 % 0 lf 1030,1 hPa 0,0 l/m 0 min 0 min 0 W/m 16,7 km/h (3 Bft) 100,00 %
30.11.2016 22:21 2,6 C 2,8 C 1,1 C 81 % 0 lf 1030,1 hPa 0,0 l/m 0 min 0 min 0 W/m 14,6 km/h (3 Bft) 100,00 %
30.11.2016 22:22 2,7 C 2,8 C 1,1 C 81 % 0 lf 1030,1 hPa 0,0 l/m 0 min 0 min 0 W/m 18,8 km/h (3 Bft) 100,00 %
30.11.2016 22:23 2,7 C 2,8 C 1,1 C 81 % 0 lf 1030,1 hPa 0,0 l/m 0 min 0 min 0 W/m 16,7 km/h (3 Bft) 100,00 %
30.11.2016 22:24 2,6 C 2,8 C 1,1 C 81 % 0 lf 1030,1 hPa 0,0 l/m 0 min 0 min 0 W/m 16,7 km/h (3 Bft) 100,00 %
30.11.2016 22:25 2,7 C 2,8 C 1,1 C 81 % 0 lf 1030,1 hPa 0,0 l/m 0 min 0 min 0 W/m 18,8 km/h (3 Bft) 100,00 %
30.11.2016 22:26 2,7 C 2,8 C 1,1 C 81 % 0 lf 1030,1 hPa 0,0 l/m 0 min 0 min 0 W/m 16,7 km/h (3 Bft) 100,00 %
30.11.2016 22:27 2,7 C 2,8 C 1,1 C 81 % 0 lf 1030,1 hPa 0,0 l/m 0 min 0 min 0 W/m 14,6 km/h (3 Bft) 100,00 %
30.11.2016 22:30 2,6 C 2,8 C 1,1 C 81 % 0 lf 1030,1 hPa 0,0 l/m 0 min 0 min 0 W/m 20,9 km/h (4 Bft) 98,33 %
30.11.2016 22:32 2,6 C 2,8 C 1,1 C 81 % 0 lf 1030,0 hPa 0,0 l/m 0 min 0 min 0 W/m 14,6 km/h (3 Bft) 100,00 %
30.11.2016 22:34 2,6 C 2,8 C 1,1 C 81 % 0 lf 1030,0 hPa 0,0 l/m 0 min 0 min 0 W/m 23,0 km/h (4 Bft) 100,00 %
30.11.2016 22:36 2,6 C 2,8 C 1,1 C 81 % 0 lf 1030,0 hPa 0,0 l/m 0 min 0 min 0 W/m 20,9 km/h (4 Bft) 97,87 %
30.11.2016 22:38 2,6 C 2,8 C 1,1 C 81 % 0 lf 1030,0 hPa 0,0 l/m 0 min 0 min 0 W/m 20,9 km/h (4 Bft) 100,00 %
30.11.2016 22:40 2,6 C 2,8 C 1,1 C 81 % 0 lf 1030,0 hPa 0,0 l/m 0 min 0 min 0 W/m 18,8 km/h (3 Bft) 100,00 %
30.11.2016 22:42 2,6 C 2,8 C 1,1 C 81 % 0 lf 1029,9 hPa 0,0 l/m 0 min 0 min 0 W/m 18,8 km/h (3 Bft) 100,00 %
30.11.2016 22:44 2,6 C 2,8 C 1,1 C 81 % 0 lf 1030,0 hPa 0,0 l/m 0 min 0 min 0 W/m 16,7 km/h (3 Bft) 93,62 %
30.11.2016 22:46 2,6 C 2,8 C 1,1 C 81 % 0 lf 1029,8 hPa 0,0 l/m 0 min 0 min 0 W/m 16,7 km/h (3 Bft) 97,87 %
30.11.2016 22:48 2,6 C 2,8 C 1,1 C 81 % 0 lf 1029,8 hPa 0,0 l/m 0 min 0 min 0 W/m 20,9 km/h (4 Bft) 100,00 %
30.11.2016 22:50 2,6 C 2,8 C 1,1 C 81 % 0 lf 1029,8 hPa 0,0 l/m 0 min 0 min 0 W/m 18,8 km/h (3 Bft) 97,87 %
30.11.2016 22:52 2,6 C 2,8 C 1,1 C 81 % 0 lf 1029,8 hPa 0,0 l/m 0 min 0 min 0 W/m 16,7 km/h (3 Bft) 95,74 %
30.11.2016 22:54 2,6 C 2,8 C 1,1 C 81 % 0 lf 1029,9 hPa 0,0 l/m 0 min 0 min 0 W/m 23,0 km/h (4 Bft) 97,87 %
30.11.2016 22:56 2,6 C 2,8 C 1,1 C 81 % 0 lf 1030,0 hPa 0,0 l/m 0 min 0 min 0 W/m 20,9 km/h (4 Bft) 97,87 %
30.11.2016 22:58 2,6 C 2,8 C 1,1 C 81 % 0 lf 1030,0 hPa 0,0 l/m 0 min 0 min 0 W/m 16,7 km/h (3 Bft) 100,00 %
30.11.2016 23:00 2,6 C 2,8 C 1,1 C 81 % 0 lf 1030,0 hPa 0,0 l/m 0 min 0 min 0 W/m 20,9 km/h (4 Bft) 97,83 %
30.11.2016 23:02 2,6 C 2,8 C 1,1 C 81 % 0 lf 1030,0 hPa 0,0 l/m 0 min 0 min 0 W/m 16,7 km/h (3 Bft) 97,92 %
30.11.2016 23:04 2,6 C 2,8 C 1,1 C 81 % 0 lf 1030,1 hPa 0,0 l/m 0 min 0 min 0 W/m 18,8 km/h (3 Bft) 95,74 %
30.11.2016 23:06 2,6 C 2,8 C 1,1 C 81 % 0 lf 1030,1 hPa 0,0 l/m 0 min 0 min 0 W/m 18,8 km/h (3 Bft) 98,00 %
30.11.2016 23:08 2,6 C 2,8 C 1,1 C 82 % 0 lf 1030,1 hPa 0,0 l/m 0 min 0 min 0 W/m 14,6 km/h (3 Bft) 95,74 %
30.11.2016 23:10 2,6 C 2,8 C 1,1 C 82 % 0 lf 1030,0 hPa 0,0 l/m 0 min 0 min 0 W/m 10,5 km/h (2 Bft) 95,65 %
30.11.2016 23:12 2,6 C 2,8 C 1,1 C 82 % 0 lf 1030,1 hPa 0,0 l/m 0 min 0 min 0 W/m 14,6 km/h (3 Bft) 97,87 %
30.11.2016 23:14 2,6 C 2,8 C 1,1 C 82 % 0 lf 1030,0 hPa 0,0 l/m 0 min 0 min 0 W/m 12,6 km/h (3 Bft) 97,87 %
30.11.2016 23:16 2,6 C 2,8 C 1,1 C 82 % 0 lf 1030,1 hPa 0,0 l/m 0 min 0 min 0 W/m 14,6 km/h (3 Bft) 97,87 %
30.11.2016 23:18 2,6 C 2,8 C 1,1 C 82 % 0 lf 1030,1 hPa 0,0 l/m 0 min 0 min 0 W/m 18,8 km/h (3 Bft) 95,74 %
30.11.2016 23:20 2,6 C 2,8 C 1,1 C 82 % 0 lf 1030,0 hPa 0,0 l/m 0 min 0 min 0 W/m 12,6 km/h (3 Bft) 95,65 %
30.11.2016 23:22 2,6 C 2,8 C 1,1 C 82 % 0 lf 1030,0 hPa 0,0 l/m 0 min 0 min 0 W/m 14,6 km/h (3 Bft) 95,83 %
30.11.2016 23:24 2,6 C 2,8 C 1,1 C 82 % 0 lf 1030,0 hPa 0,0 l/m 0 min 0 min 0 W/m 14,6 km/h (3 Bft) 95,74 %
30.11.2016 23:26 2,6 C 2,8 C 1,1 C 82 % 0 lf 1030,0 hPa 0,0 l/m 0 min 0 min 0 W/m 14,6 km/h (3 Bft) 93,62 %
30.11.2016 23:28 2,6 C 2,8 C 1,1 C 82 % 0 lf 1030,0 hPa 0,0 l/m 0 min 0 min 0 W/m 12,6 km/h (3 Bft) 95,74 %
30.11.2016 23:30 2,6 C 2,8 C 1,1 C 82 % 0 lf 1030,0 hPa 0,0 l/m 0 min 0 min 0 W/m 18,8 km/h (3 Bft) 93,62 %
30.11.2016 23:32 2,6 C 2,8 C 1,1 C 82 % 0 lf 1030,0 hPa 0,0 l/m 0 min 0 min 0 W/m 14,6 km/h (3 Bft) 91,30 %
30.11.2016 23:34 2,6 C 2,8 C 1,1 C 82 % 0 lf 1030,0 hPa 0,0 l/m 0 min 0 min 0 W/m 16,7 km/h (3 Bft) 97,87 %
30.11.2016 23:36 2,6 C 2,8 C 1,1 C 82 % 0 lf 1030,1 hPa 0,0 l/m 0 min 0 min 0 W/m 14,6 km/h (3 Bft) 94,59 %
30.11.2016 23:38 2,6 C 2,8 C 1,1 C 83 % 0 lf 1030,0 hPa 0,0 l/m 0 min 0 min 0 W/m 14,6 km/h (3 Bft) 95,74 %
30.11.2016 23:40 2,6 C 2,8 C 1,1 C 83 % 0 lf 1029,9 hPa 0,0 l/m 0 min 0 min 0 W/m 20,9 km/h (4 Bft) 95,74 %
30.11.2016 23:42 2,6 C 2,8 C 1,1 C 83 % 0 lf 1029,8 hPa 0,0 l/m 0 min 0 min 0 W/m 16,7 km/h (3 Bft) 96,49 %
30.11.2016 23:44 2,6 C 2,8 C 1,1 C 83 % 0 lf 1029,9 hPa 0,0 l/m 0 min 0 min 0 W/m 14,6 km/h (3 Bft) 95,65 %
30.11.2016 23:46 2,6 C 2,8 C 1,1 C 83 % 0 lf 1030,0 hPa 0,0 l/m 0 min 0 min 0 W/m 14,6 km/h (3 Bft) 93,62 %
30.11.2016 23:48 2,6 C 2,8 C 1,1 C 83 % 0 lf 1030,0 hPa 0,0 l/m 0 min 0 min 0 W/m 16,7 km/h (3 Bft) 95,74 %
30.11.2016 23:50 2,6 C 2,8 C 1,1 C 83 % 0 lf 1029,9 hPa 0,0 l/m 0 min 0 min 0 W/m 16,7 km/h (3 Bft) 93,62 %
30.11.2016 23:52 2,6 C 2,8 C 1,1 C 83 % 0 lf 1029,7 hPa 0,0 l/m 0 min 0 min 0 W/m 16,7 km/h (3 Bft) 93,62 %
30.11.2016 23:54 2,6 C 2,8 C 1,1 C 83 % 0 lf 1029,7 hPa 0,0 l/m 0 min 0 min 0 W/m 23,0 km/h (4 Bft) 91,49 %
30.11.2016 23:56 2,6 C 2,8 C 1,1 C 83 % 0 lf 1029,7 hPa 0,0 l/m 0 min 0 min 0 W/m 23,0 km/h (4 Bft) 95,65 %
30.11.2016 23:58 2,6 C 2,8 C 1,1 C 83 % 0 lf 1029,6 hPa 0,0 l/m 0 min 0 min 0 W/m 20,9 km/h (4 Bft) 91,49 %
_ Min-Zeit 08:44 08:24 07:38 13:38 00:02 23:58 - - - - 00:12 12:50
Minimum _ -5,4 C -6,1 C -7,8 C 67 % 0 lf 1029,6 hPa - - - - 0,0 km/h (0 Bft) 85,11 %
_ Max-Zeit 13:44 13:38 13:30 09:56 00:00 00:00 10:48 08:32 00:00 13:32 21:54 00:10
Maximum _ 3,8 C 10,6 C 2,8 C 95 % 1 lf 1033,8 hPa 0,2 l/m 2 min 0 min 324 W/m 27,2 km/h
W (4 Bft)
100,00 %
Durchschnitt _ -0,7 C 0,4 C -2,4 C 83 % 0 lf 1031,9 hPa #0,2 l/m #7:23 h #0 min. 118 W/m 10,8 km/h (2 Bft) 95,91 %
© 2016 W. Hausmann